<- Previous Day | Today | Next Day ->

All Data for 07 July 2020

 

Time A - D Temp A - D Dew Point A - D Humidity A - D Pressure A - D Wind A - D Wind Dir Gust A - D Rain Rate A - D Rain Total
00:01 11.3 8.2 81 1024.7 1.6 N 3.1 0.0 0.0
00:02 11.3 8.2 81 1024.6 1.6 N 3.1 0.0 0.0
00:03 11.2 8.1 81 1024.5 3.1 NW 3.1 0.0 0.0
00:04 11.2 8.1 81 1024.6 3.1 N 3.1 0.0 0.0
00:05 11.2 8.1 81 1024.6 3.1 N 3.1 0.0 0.0
00:06 11.2 8.1 81 1024.6 2.2 N 3.1 0.0 0.0
00:07 11.2 8.1 81 1024.5 3.1 NW 3.1 0.0 0.0
00:08 11.2 8.1 81 1024.5 3.1 NW 3.1 0.0 0.0
00:09 11.2 8.1 81 1024.6 2.2 W 3.1 0.0 0.0
00:10 11.1 8.0 81 1024.6 2.2 NW 3.1 0.0 0.0
00:11 11.1 8.0 81 1024.8 3.1 NW 3.1 0.0 0.0
00:12 11.1 8.0 81 1024.4 2.2 NW 3.1 0.0 0.0
00:13 11.1 8.0 81 1024.4 1.6 N 3.1 0.0 0.0
00:14 11.1 8.0 81 1024.7 1.6 NW 3.1 0.0 0.0
00:16 11.1 8.0 81 1024.4 1.6 N 3.1 0.0 0.0
00:17 11.0 7.9 81 1024.4 2.2 NW 3.1 0.0 0.0
00:18 11.0 7.9 81 1024.5 2.2 NW 3.1 0.0 0.0
00:19 11.0 7.9 81 1024.4 3.1 NW 3.1 0.0 0.0
00:20 11.0 7.9 81 1024.6 2.2 N 3.1 0.0 0.0
00:21 11.0 7.9 81 1024.5 3.1 W 3.1 0.0 0.0
00:22 11.0 7.9 81 1024.6 3.8 NW 3.8 0.0 0.0
00:23 11.0 7.9 81 1024.4 3.8 W 3.8 0.0 0.0
00:24 11.0 7.9 81 1024.5 3.8 W 3.8 0.0 0.0
00:25 11.0 7.9 81 1024.3 3.8 NW 3.8 0.0 0.0
00:26 11.0 7.9 81 1024.5 4.5 W 4.5 0.0 0.0
00:27 11.0 7.9 81 1024.5 4.5 WNW 4.5 0.0 0.0
00:29 10.9 7.8 81 1024.6 5.4 W 5.4 0.0 0.0
00:30 10.9 7.8 81 1024.5 4.5 W 5.4 0.0 0.0
00:31 10.9 7.8 81 1024.4 4.5 W 5.4 0.0 0.0
00:32 10.9 7.8 81 1024.5 4.5 NW 5.4 0.0 0.0
00:33 10.9 7.8 81 1024.5 3.8 W 5.4 0.0 0.0
00:34 11.0 7.9 81 1024.5 4.5 NW 5.4 0.0 0.0
00:35 11.0 7.9 81 1024.6 3.8 WNW 5.4 0.0 0.0
00:36 11.0 8.0 82 1024.8 3.8 NW 5.4 0.0 0.0
00:37 11.0 8.0 82 1024.6 6.0 NW 6.0 0.0 0.0
00:38 11.0 8.0 82 1024.5 3.8 W 6.0 0.0 0.0
00:39 11.0 8.0 82 1024.6 3.1 NW 6.0 0.0 0.0
00:40 11.0 8.0 82 1024.6 3.1 W 6.0 0.0 0.0
00:41 11.0 8.0 82 1024.7 5.4 W 6.0 0.0 0.0
00:42 11.0 8.0 82 1024.5 4.5 NW 6.0 0.0 0.0
00:44 11.0 8.0 82 1024.5 3.1 W 6.0 0.0 0.0
00:45 11.1 8.1 82 1024.6 2.2 W 6.0 0.0 0.0
00:46 11.1 8.1 82 1024.4 1.6 NW 6.0 0.0 0.0
00:47 11.1 8.1 82 1024.4 1.6 NW 6.0 0.0 0.0
00:48 11.1 8.3 83 1024.5 2.2 NW 5.4 0.0 0.0
00:49 11.1 8.3 83 1024.6 2.2 NW 5.4 0.0 0.0
00:50 11.1 8.3 83 1024.3 1.6 N 5.4 0.0 0.0
00:51 11.1 8.3 83 1024.5 1.6 NW 5.4 0.0 0.0
00:52 11.1 8.3 83 1024.6 1.6 N 4.5 0.0 0.0
00:53 11.1 8.3 83 1024.3 2.2 N 3.8 0.0 0.0
00:54 11.1 8.3 83 1024.3 0.7 NW 3.8 0.0 0.0
00:55 11.1 8.3 83 1024.2 0.7 N 2.2 0.0 0.0
00:56 11.1 8.3 83 1024.2 0.7 N 2.2 0.0 0.0
00:58 11.2 8.4 83 1024.1 1.6 NW 2.2 0.0 0.0
00:59 11.2 8.4 83 1024.3 1.6 NW 2.2 0.0 0.0
01:00 11.2 8.4 83 1024.2 1.6 NW 2.2 0.0 0.0
01:01 11.2 8.4 83 1023.8 1.6 NW 2.2 0.0 0.0
01:02 11.2 8.4 83 1024.2 1.6 NW 2.2 0.0 0.0
01:03 11.2 8.4 83 1024.3 1.6 NW 2.2 0.0 0.0
01:04 11.2 8.4 83 1024.1 1.6 NW 2.2 0.0 0.0
01:05 11.2 8.4 83 1024.3 1.6 NW 1.6 0.0 0.0
01:06 11.1 8.3 83 1024.2 0.0 NW 1.6 0.0 0.0
01:07 11.1 8.3 83 1024.0 0.7 W 1.6 0.0 0.0
01:08 11.1 8.3 83 1024.3 0.0 W 1.6 0.0 0.0
01:09 11.1 8.3 83 1024.2 0.0 W 1.6 0.0 0.0
01:11 11.1 8.3 83 1024.2 1.6 W 1.6 0.0 0.0
01:12 11.1 8.3 83 1024.2 1.6 W 1.6 0.0 0.0
01:13 11.1 8.3 83 1024.1 0.0 N 1.6 0.0 0.0
01:14 11.1 8.3 83 1024.3 1.6 S 1.6 0.0 0.0
01:15 11.1 8.3 83 1024.1 1.6 SW 1.6 0.0 0.0
01:16 11.1 8.3 83 1023.9 1.6 S 1.6 0.0 0.0
01:17 11.1 8.3 83 1024.1 1.6 SW 1.6 0.0 0.0
01:18 11.1 8.3 83 1024.1 1.6 SW 1.6 0.0 0.0
01:19 11.0 8.2 83 1024.1 1.6 SW 1.6 0.0 0.0
01:20 11.0 8.2 83 1024.0 0.7 SW 1.6 0.0 0.0
01:21 11.0 8.2 83 1023.9 0.7 SW 1.6 0.0 0.0
01:22 11.0 8.2 83 1024.0 0.0 S 1.6 0.0 0.0
01:23 10.9 8.1 83 1024.0 0.7 S 1.6 0.0 0.0
01:24 10.9 8.1 83 1023.9 0.0 S 1.6 0.0 0.0
01:26 10.9 8.1 83 1024.0 0.0 S 1.6 0.0 0.0
01:27 10.8 7.9 82 1023.9 0.7 E 1.6 0.0 0.0
01:28 10.8 7.9 82 1024.0 0.7 NE 1.6 0.0 0.0
01:29 10.8 7.9 82 1024.0 0.7 E 1.6 0.0 0.0
01:30 10.8 7.9 82 1024.0 0.7 E 0.7 0.0 0.0
01:31 10.7 7.8 82 1024.0 0.7 S 0.7 0.0 0.0
01:32 10.7 7.8 82 1024.1 0.7 S 0.7 0.0 0.0
01:33 10.7 7.8 82 1024.1 0.7 S 0.7 0.0 0.0
01:34 10.6 7.7 82 1024.0 0.7 E 0.7 0.0 0.0
01:35 10.6 7.7 82 1024.0 1.6 S 1.6 0.0 0.0
01:36 10.6 7.7 82 1024.2 1.6 S 1.6 0.0 0.0
01:37 10.5 7.6 82 1023.9 1.6 S 1.6 0.0 0.0
01:38 10.5 7.6 82 1024.1 0.7 S 1.6 0.0 0.0
01:40 10.5 7.6 82 1024.1 0.7 S 1.6 0.0 0.0
01:41 10.5 7.6 82 1024.1 0.7 SW 1.6 0.0 0.0
01:42 10.5 7.6 82 1023.8 0.7 SW 1.6 0.0 0.0
01:43 10.5 7.6 82 1024.0 0.7 SE 1.6 0.0 0.0
01:44 10.4 7.5 82 1024.1 0.7 SE 1.6 0.0 0.0
01:45 10.4 7.5 82 1023.9 0.7 SE 1.6 0.0 0.0
01:46 10.4 7.5 82 1024.0 0.7 SE 1.6 0.0 0.0
01:47 10.4 7.5 82 1024.1 0.7 SE 1.6 0.0 0.0
01:48 10.4 7.5 82 1023.8 1.6 SW 1.6 0.0 0.0
01:49 10.3 7.4 82 1024.2 1.6 S 1.6 0.0 0.0
01:50 10.3 7.4 82 1023.8 0.7 S 1.6 0.0 0.0
01:51 10.3 7.4 82 1024.0 0.7 S 1.6 0.0 0.0
01:52 10.3 7.4 82 1024.0 0.7 S 1.6 0.0 0.0
01:54 10.3 7.4 82 1023.8 1.6 E 1.6 0.0 0.0
01:55 10.3 7.4 82 1023.9 1.6 E 1.6 0.0 0.0
01:56 10.3 7.4 82 1023.9 1.6 E 1.6 0.0 0.0
01:57 10.3 7.4 82 1023.9 0.7 N 1.6 0.0 0.0
01:58 10.3 7.4 82 1023.9 1.6 NE 1.6 0.0 0.0
01:59 10.3 7.4 82 1023.8 1.6 NE 1.6 0.0 0.0
02:00 10.4 7.6 83 1023.8 3.1 N 3.1 0.0 0.0
02:01 10.4 7.6 83 1024.1 1.6 N 3.1 0.0 0.0
02:02 10.4 7.6 83 1023.9 1.6 N 3.1 0.0 0.0
02:03 10.4 7.6 83 1023.7 0.7 N 3.1 0.0 0.0
02:04 10.4 7.6 83 1023.9 0.7 N 3.1 0.0 0.0
02:05 10.4 7.6 83 1024.0 0.7 N 3.1 0.0 0.0
02:06 10.5 7.7 83 1023.8 0.0 N 3.1 0.0 0.0
02:08 10.5 7.7 83 1023.6 0.0 N 3.1 0.0 0.0
02:09 10.5 7.7 83 1023.8 1.6 E 3.1 0.0 0.0
02:10 10.5 7.7 83 1023.6 1.6 E 3.1 0.0 0.0
02:11 10.5 7.7 83 1023.6 1.6 E 1.6 0.0 0.0
02:12 10.5 7.7 83 1023.9 1.6 E 1.6 0.0 0.0
02:13 10.5 7.7 83 1023.7 1.6 E 1.6 0.0 0.0
02:14 10.5 7.7 83 1023.6 1.6 NE 1.6 0.0 0.0
02:15 10.5 7.7 83 1023.8 0.7 NE 1.6 0.0 0.0
02:16 10.5 7.7 83 1023.7 0.7 NE 1.6 0.0 0.0
02:17 10.5 7.7 83 1023.7 0.0 NE 1.6 0.0 0.0
02:18 10.5 7.7 83 1023.9 0.0 NE 1.6 0.0 0.0
02:19 10.5 7.7 83 1023.7 0.0 NE 1.6 0.0 0.0
02:20 10.4 7.6 83 1023.8 0.0 NE 1.6 0.0 0.0
02:22 10.4 7.6 83 1023.8 0.0 NE 1.6 0.0 0.0
02:23 10.4 7.6 83 1023.6 0.0 NE 1.6 0.0 0.0
02:24 10.3 7.5 83 1023.4 0.0 NE 1.6 0.0 0.0
02:25 10.3 7.5 83 1023.7 0.0 NE 0.7 0.0 0.0
02:26 10.3 7.5 83 1023.7 0.0 NE 0.7 0.0 0.0
02:27 10.3 7.5 83 1023.6 0.0 NE 0.0 0.0 0.0
02:28 10.3 7.5 83 1023.4 0.0 NE 0.0 0.0 0.0
02:29 10.3 7.5 83 1023.7 0.0 NE 0.0 0.0 0.0
02:30 10.3 7.5 83 1023.7 0.7 WNW 0.7 0.0 0.0
02:31 10.3 7.5 83 1023.5 0.7 WNW 0.7 0.0 0.0
02:32 10.3 7.5 83 1023.5 0.7 WNW 0.7 0.0 0.0
02:33 10.2 7.4 83 1023.8 0.0 WNW 0.7 0.0 0.0
02:34 10.2 7.4 83 1023.7 0.0 WNW 0.7 0.0 0.0
02:36 10.2 7.4 83 1023.7 0.0 WNW 0.7 0.0 0.0
02:37 10.2 7.4 83 1023.7 0.0 W 0.7 0.0 0.0
02:38 10.2 7.4 83 1023.8 0.7 W 0.7 0.0 0.0
02:39 10.2 7.4 83 1023.7 0.7 W 0.7 0.0 0.0
02:41 10.1 7.3 83 1023.8 0.0 W 0.7 0.0 0.0
02:42 10.1 7.3 83 1023.5 0.0 W 0.7 0.0 0.0
02:43 10.0 7.2 83 1023.4 0.7 W 0.7 0.0 0.0
02:45 10.0 7.2 83 1023.5 0.0 W 0.7 0.0 0.0
02:46 10.0 7.2 83 1023.7 0.0 W 0.7 0.0 0.0
02:47 9.9 7.2 83 1023.6 0.0 W 0.7 0.0 0.0
02:48 9.9 7.2 83 1023.4 0.0 W 0.7 0.0 0.0
02:49 9.9 7.2 83 1023.2 0.7 W 0.7 0.0 0.0
02:51 9.9 7.2 83 1023.3 0.0 W 0.7 0.0 0.0
02:52 9.9 7.2 83 1023.3 0.0 W 0.7 0.0 0.0
02:53 9.9 7.2 83 1023.5 0.7 SW 0.7 0.0 0.0
02:54 9.9 7.2 83 1023.7 0.7 SW 0.7 0.0 0.0
02:56 9.9 7.2 83 1023.4 0.7 SW 0.7 0.0 0.0
02:57 9.9 7.2 83 1023.3 1.6 SW 1.6 0.0 0.0
02:58 9.9 7.2 83 1023.4 1.6 SW 1.6 0.0 0.0
02:59 9.9 7.2 83 1023.5 0.7 SW 1.6 0.0 0.0
03:00 9.9 7.2 83 1023.5 0.7 SW 1.6 0.0 0.0
03:01 9.9 7.2 83 1023.5 0.7 SW 1.6 0.0 0.0
03:02 9.9 7.2 83 1023.4 0.7 SW 1.6 0.0 0.0
03:03 9.9 7.2 83 1023.3 0.7 SW 1.6 0.0 0.0
03:04 9.9 7.2 83 1023.4 0.7 SW 1.6 0.0 0.0
03:05 9.9 7.2 83 1023.3 0.7 SW 1.6 0.0 0.0
03:06 9.8 7.1 83 1023.5 0.7 E 1.6 0.0 0.0
03:07 9.8 7.1 83 1023.5 0.7 E 1.6 0.0 0.0
03:08 9.8 7.1 83 1023.2 0.7 S 0.7 0.0 0.0
03:10 9.8 7.1 83 1023.6 0.7 SE 0.7 0.0 0.0
03:11 9.8 7.1 83 1023.2 0.7 SE 0.7 0.0 0.0
03:12 9.8 7.1 83 1023.3 0.0 SE 0.7 0.0 0.0
03:13 9.8 7.1 83 1023.4 1.6 S 1.6 0.0 0.0
03:14 9.8 7.1 83 1023.2 1.6 S 1.6 0.0 0.0
03:15 9.8 7.1 83 1023.5 0.7 S 1.6 0.0 0.0
03:16 9.8 7.1 83 1023.3 0.7 S 1.6 0.0 0.0
03:17 9.8 7.1 83 1023.4 0.0 S 1.6 0.0 0.0
03:18 9.8 7.1 83 1023.4 0.0 S 1.6 0.0 0.0
03:19 9.8 7.1 83 1023.5 0.0 S 1.6 0.0 0.0
03:20 9.8 7.1 83 1023.1 0.0 S 1.6 0.0 0.0
03:21 9.8 7.1 83 1023.3 0.0 S 1.6 0.0 0.0
03:22 9.8 7.1 83 1023.2 1.6 W 2.2 0.0 0.0
03:24 9.9 7.3 84 1023.3 2.2 WNW 2.2 0.0 0.0
03:25 9.9 7.3 84 1023.2 1.6 WNW 2.2 0.0 0.0
03:26 9.9 7.3 84 1023.3 1.6 W 2.2 0.0 0.0
03:27 9.9 7.3 84 1023.2 1.6 NW 2.2 0.0 0.0
03:28 9.9 7.3 84 1023.4 1.6 NW 2.2 0.0 0.0
03:29 9.9 7.3 84 1023.2 1.6 W 2.2 0.0 0.0
03:30 9.9 7.3 84 1023.5 2.2 NW 2.2 0.0 0.0
03:31 9.9 7.3 84 1023.4 1.6 NW 2.2 0.0 0.0
03:32 9.9 7.3 84 1023.4 0.7 SW 2.2 0.0 0.0
03:33 9.9 7.3 84 1023.2 1.6 NE 2.2 0.0 0.0
03:34 9.9 7.3 84 1023.3 1.6 W 2.2 0.0 0.0
03:35 9.9 7.3 84 1023.4 1.6 W 2.2 0.0 0.0
03:36 9.9 7.3 84 1023.5 0.7 W 2.2 0.0 0.0
03:38 9.9 7.3 84 1023.2 2.2 S 2.2 0.0 0.0
03:39 9.9 7.3 84 1023.2 2.2 S 2.2 0.0 0.0
03:40 9.9 7.3 84 1023.2 1.6 S 2.2 0.0 0.0
03:41 9.9 7.3 84 1023.2 1.6 SW 2.2 0.0 0.0
03:42 9.9 7.3 84 1023.2 1.6 SW 2.2 0.0 0.0
03:43 9.8 7.2 84 1023.2 1.6 SW 2.2 0.0 0.0
03:44 9.8 7.2 84 1023.0 1.6 SW 2.2 0.0 0.0
03:45 9.8 7.2 84 1023.2 1.6 SW 2.2 0.0 0.0
03:46 9.8 7.2 84 1023.0 2.2 W 2.2 0.0 0.0
03:47 9.8 7.2 84 1023.0 2.2 W 2.2 0.0 0.0
03:48 9.8 7.2 84 1023.1 0.7 W 2.2 0.0 0.0
03:49 9.8 7.2 84 1023.3 2.2 W 2.2 0.0 0.0
03:50 9.8 7.2 84 1023.0 0.7 W 2.2 0.0 0.0
03:52 9.8 7.2 84 1022.9 0.7 NW 2.2 0.0 0.0
03:53 9.8 7.2 84 1022.8 1.6 W 2.2 0.0 0.0
03:54 9.8 7.2 84 1022.8 1.6 NW 2.2 0.0 0.0
03:55 9.8 7.2 84 1023.0 1.6 NW 2.2 0.0 0.0
03:56 9.8 7.2 84 1022.9 1.6 W 2.2 0.0 0.0
03:57 9.8 7.2 84 1022.9 1.6 W 2.2 0.0 0.0
03:58 9.8 7.2 84 1023.0 1.6 W 2.2 0.0 0.0
03:59 9.8 7.2 84 1022.9 1.6 SW 2.2 0.0 0.0
04:00 9.8 7.4 85 1022.9 1.6 S 1.6 0.0 0.0
04:01 9.8 7.4 85 1022.9 1.6 SW 1.6 0.0 0.0
04:02 9.8 7.4 85 1023.0 2.2 SW 3.1 0.0 0.0
04:03 9.8 7.4 85 1022.9 2.2 S 3.1 0.0 0.0
04:04 9.8 7.4 85 1023.0 2.2 S 3.1 0.0 0.0
04:06 9.8 7.4 85 1022.9 1.6 SW 3.1 0.0 0.0
04:07 9.8 7.4 85 1022.9 1.6 SW 3.1 0.0 0.0
04:08 9.8 7.4 85 1023.1 1.6 S 3.1 0.0 0.0
04:09 9.8 7.4 85 1022.9 0.7 S 3.1 0.0 0.0
04:10 9.8 7.4 85 1023.0 1.6 S 3.1 0.0 0.0
04:11 9.8 7.4 85 1022.9 1.6 SW 3.1 0.0 0.0
04:12 9.7 7.3 85 1022.9 0.7 SW 3.1 0.0 0.0
04:13 9.7 7.3 85 1022.8 0.7 SW 2.2 0.0 0.0
04:14 9.7 7.3 85 1023.0 1.6 S 2.2 0.0 0.0
04:15 9.7 7.3 85 1022.8 1.6 S 2.2 0.0 0.0
04:16 9.7 7.3 85 1023.0 3.1 S 3.1 0.0 0.0
04:17 9.7 7.3 85 1022.8 2.2 S 3.1 0.0 0.0
04:18 9.6 7.2 85 1022.8 2.2 S 3.1 0.0 0.0
04:20 9.6 7.0 84 1023.0 1.6 SW 3.1 0.0 0.0
04:21 9.6 7.0 84 1022.8 1.6 SW 3.1 0.0 0.0
04:22 9.5 6.9 84 1022.8 1.6 SW 3.1 0.0 0.0
04:23 9.5 6.9 84 1022.9 1.6 S 3.1 0.0 0.0
04:24 9.5 6.9 84 1022.8 2.2 S 3.1 0.0 0.0
04:25 9.5 6.9 84 1023.0 1.6 SW 3.1 0.0 0.0
04:26 9.5 6.9 84 1022.8 1.6 SW 3.1 0.0 0.0
04:27 9.5 6.9 84 1022.9 1.6 SW 3.1 0.0 0.0
04:28 9.4 6.8 84 1022.7 0.0 SW 2.2 0.0 0.0
04:29 9.4 6.8 84 1022.7 0.0 SW 2.2 0.0 0.0
04:30 9.4 6.8 84 1023.1 0.0 SW 2.2 0.0 0.0
04:31 9.4 6.8 84 1023.0 0.0 SW 2.2 0.0 0.0
04:32 9.4 6.8 84 1022.6 0.0 SW 2.2 0.0 0.0
04:34 9.4 6.8 84 1022.7 0.7 NW 2.2 0.0 0.0
04:35 9.4 6.8 84 1022.7 0.7 NW 1.6 0.0 0.0
04:36 9.4 6.8 84 1022.8 1.6 NW 1.6 0.0 0.0
04:37 9.4 6.8 84 1022.6 1.6 W 1.6 0.0 0.0
04:38 9.4 6.8 84 1022.6 0.7 W 1.6 0.0 0.0
04:39 9.4 6.8 84 1022.8 0.0 W 1.6 0.0 0.0
04:40 9.4 6.8 84 1022.8 0.0 W 1.6 0.0 0.0
04:41 9.4 6.8 84 1022.7 1.6 S 1.6 0.0 0.0
04:42 9.4 6.8 84 1022.6 1.6 S 1.6 0.0 0.0
04:43 9.4 6.8 84 1022.5 1.6 S 1.6 0.0 0.0
04:44 9.3 6.7 84 1022.5 1.6 SSE 1.6 0.0 0.0
04:45 9.3 6.7 84 1022.7 1.6 S 1.6 0.0 0.0
04:46 9.3 6.7 84 1022.6 1.6 S 1.6 0.0 0.0
04:48 9.3 6.7 84 1022.7 2.2 S 2.2 0.0 0.0
04:49 9.3 6.7 84 1022.7 1.6 S 2.2 0.0 0.0
04:50 9.2 6.6 84 1022.8 1.6 SE 2.2 0.0 0.0
04:51 9.2 6.6 84 1022.7 1.6 S 2.2 0.0 0.0
04:52 9.2 6.6 84 1022.6 1.6 S 2.2 0.0 0.0
04:53 9.2 6.6 84 1022.8 0.7 SE 2.2 0.0 0.0
04:54 9.2 6.6 84 1022.8 0.7 SE 2.2 0.0 0.0
04:55 9.2 6.6 84 1022.5 0.7 S 2.2 0.0 0.0
04:56 9.2 6.6 84 1022.7 1.6 SW 2.2 0.0 0.0
04:57 9.2 6.6 84 1022.7 0.7 S 2.2 0.0 0.0
04:58 9.2 6.6 84 1022.6 0.0 S 1.6 0.0 0.0
04:59 9.2 6.6 84 1022.7 0.7 S 1.6 0.0 0.0
05:00 9.2 6.6 84 1022.6 0.7 S 1.6 0.0 0.0
05:02 9.2 6.6 84 1022.6 0.7 S 1.6 0.0 0.0
05:03 9.2 6.6 84 1022.6 0.7 S 1.6 0.0 0.0
05:04 9.2 6.6 84 1022.3 0.7 S 1.6 0.0 0.0
05:05 9.2 6.8 85 1022.3 1.6 S 1.6 0.0 0.0
05:06 9.2 6.8 85 1022.4 1.6 S 1.6 0.0 0.0
05:07 9.2 6.8 85 1022.5 1.6 S 1.6 0.0 0.0
05:08 9.3 6.9 85 1022.3 0.7 S 1.6 0.0 0.0
05:09 9.3 6.9 85 1022.5 0.0 S 1.6 0.0 0.0
05:10 9.3 6.9 85 1022.4 0.0 S 1.6 0.0 0.0
05:11 9.3 6.9 85 1022.4 0.7 S 1.6 0.0 0.0
05:12 9.3 6.9 85 1022.4 0.7 S 1.6 0.0 0.0
05:13 9.3 6.9 85 1022.2 0.0 S 1.6 0.0 0.0
05:14 9.3 6.9 85 1022.3 0.0 S 1.6 0.0 0.0
05:16 9.3 6.9 85 1022.2 1.6 S 1.6 0.0 0.0
05:17 9.3 6.9 85 1022.1 2.2 S 2.2 0.0 0.0
05:18 9.3 6.9 85 1022.2 1.6 S 2.2 0.0 0.0
05:19 9.3 6.9 85 1022.5 2.2 S 2.2 0.0 0.0
05:20 9.3 6.9 85 1022.4 1.6 S 2.2 0.0 0.0
05:21 9.3 6.9 85 1022.3 2.2 S 2.2 0.0 0.0
05:22 9.3 6.9 85 1022.2 1.6 S 2.2 0.0 0.0
05:23 9.3 6.9 85 1022.5 2.2 E 2.2 0.0 0.0
05:24 9.3 6.9 85 1022.2 3.1 S 3.1 0.0 0.0
05:25 9.3 6.9 85 1022.5 3.1 S 3.1 0.0 0.0
05:26 9.3 6.9 85 1022.5 1.6 S 3.1 0.0 0.0
05:27 9.3 6.9 85 1022.4 1.6 SE 3.1 0.0 0.0
05:28 9.3 6.9 85 1022.4 1.6 SE 3.1 0.0 0.0
05:30 9.4 7.0 85 1022.2 1.6 S 3.1 0.0 0.0
05:31 9.4 7.0 85 1022.2 1.6 S 3.1 0.0 0.0
05:32 9.4 7.0 85 1022.4 0.7 S 3.1 0.0 0.0
05:33 9.4 7.0 85 1022.4 0.7 S 3.1 0.0 0.0
05:34 9.4 7.2 86 1022.5 0.0 S 3.1 0.0 0.0
05:35 9.4 7.2 86 1022.4 0.0 S 3.1 0.0 0.0
05:36 9.4 7.2 86 1022.5 0.0 S 2.2 0.0 0.0
05:37 9.4 7.2 86 1022.5 0.7 S 1.6 0.0 0.0
05:38 9.3 7.1 86 1022.4 0.0 S 1.6 0.0 0.0
05:39 9.3 6.9 85 1022.4 0.7 S 1.6 0.0 0.0
05:40 9.3 6.9 85 1022.5 1.6 N 1.6 0.0 0.0
05:41 9.3 6.9 85 1022.5 1.6 NW 1.6 0.0 0.0
05:42 9.3 6.9 85 1022.3 1.6 WNW 2.2 0.0 0.0
05:44 9.3 6.9 85 1022.5 0.7 W 2.2 0.0 0.0
05:45 9.3 7.1 86 1022.3 1.6 SW 2.2 0.0 0.0
05:46 9.3 7.1 86 1022.5 1.6 S 2.2 0.0 0.0
05:47 9.3 7.1 86 1022.4 2.2 S 2.2 0.0 0.0
05:48 9.3 7.1 86 1022.5 1.6 S 2.2 0.0 0.0
05:49 9.3 7.1 86 1022.4 2.2 SE 2.2 0.0 0.0
05:50 9.3 7.1 86 1022.3 3.1 SE 3.1 0.0 0.0
05:51 9.3 7.1 86 1022.5 2.2 S 3.1 0.0 0.0
05:52 9.3 7.1 86 1022.5 1.6 E 3.1 0.0 0.0
05:53 9.3 7.1 86 1022.4 1.6 SW 3.1 0.0 0.0
05:54 9.3 7.1 86 1022.5 1.6 E 3.1 0.0 0.0
05:55 9.3 7.1 86 1022.4 0.7 E 3.1 0.0 0.0
05:56 9.3 7.1 86 1022.5 0.7 SE 3.1 0.0 0.0
05:58 9.2 7.0 86 1022.5 0.7 NW 3.1 0.0 0.0
05:59 9.2 7.0 86 1022.5 0.7 NW 3.1 0.0 0.0
06:00 9.2 7.0 86 1022.5 1.6 W 3.1 0.0 0.0
06:01 9.2 7.0 86 1022.2 1.6 W 2.2 0.0 0.0
06:02 9.2 7.0 86 1022.4 1.6 W 1.6 0.0 0.0
06:03 9.1 6.7 85 1022.5 0.0 W 1.6 0.0 0.0
06:04 9.1 6.7 85 1022.4 0.7 W 1.6 0.0 0.0
06:05 9.1 6.7 85 1022.3 0.7 W 1.6 0.0 0.0
06:06 9.1 6.7 85 1022.3 0.0 W 1.6 0.0 0.0
06:07 9.1 6.7 85 1022.3 0.0 W 1.6 0.0 0.0
06:08 9.1 6.7 85 1022.4 0.0 W 1.6 0.0 0.0
06:09 9.1 6.7 85 1022.3 0.7 S 1.6 0.0 0.0
06:10 9.1 6.9 86 1022.3 2.2 S 2.2 0.0 0.0
06:12 9.1 6.9 86 1022.4 3.8 S 3.8 0.0 0.0
06:13 9.2 7.0 86 1022.4 3.1 S 3.8 0.0 0.0
06:14 9.2 7.0 86 1022.3 2.2 S 3.8 0.0 0.0
06:15 9.2 7.0 86 1022.3 2.2 S 3.8 0.0 0.0
06:16 9.2 7.0 86 1022.3 2.2 S 3.8 0.0 0.0
06:17 9.3 7.1 86 1022.4 1.6 SSW 3.8 0.0 0.0
06:18 9.3 7.1 86 1022.2 1.6 S 3.8 0.0 0.0
06:19 9.3 7.1 86 1022.4 1.6 SW 3.8 0.0 0.0
06:20 9.3 7.1 86 1022.4 1.6 S 3.8 0.0 0.0
06:21 9.4 7.2 86 1022.3 1.6 S 3.8 0.0 0.0
06:22 9.4 7.2 86 1022.3 0.7 S 3.8 0.0 0.0
06:23 9.4 7.2 86 1022.2 0.7 S 2.2 0.0 0.0
06:24 9.4 7.2 86 1022.3 1.6 SW 2.2 0.0 0.0
06:26 9.5 7.3 86 1022.2 0.7 SW 2.2 0.0 0.0
06:27 9.5 7.3 86 1022.2 0.7 SW 1.6 0.0 0.0
06:28 9.5 7.3 86 1022.2 1.6 SW 1.6 0.0 0.0
06:29 9.5 7.3 86 1022.3 0.0 SW 1.6 0.0 0.0
06:30 9.5 7.3 86 1022.3 1.6 W 1.6 0.0 0.0
06:31 9.5 7.3 86 1022.2 1.6 W 1.6 0.0 0.0
06:32 9.5 7.3 86 1022.3 0.7 W 1.6 0.0 0.0
06:33 9.5 7.3 86 1022.2 1.6 W 1.6 0.0 0.0
06:34 9.5 7.4 87 1022.1 0.7 W 1.6 0.0 0.0
06:35 9.5 7.4 87 1022.1 0.7 W 1.6 0.0 0.0
06:36 9.5 7.4 87 1022.1 1.6 W 1.6 0.0 0.0
06:37 9.5 7.4 87 1022.1 1.6 W 1.6 0.0 0.0
06:38 9.6 7.5 87 1022.2 1.6 W 1.6 0.0 0.0
06:40 9.6 7.5 87 1022.0 0.7 W 1.6 0.0 0.0
06:41 9.6 7.5 87 1022.2 0.7 W 1.6 0.0 0.0
06:42 9.6 7.5 87 1022.1 0.7 W 1.6 0.0 0.0
06:43 9.6 7.5 87 1022.2 1.6 SW 1.6 0.0 0.0
06:44 9.6 7.5 87 1022.1 1.6 S 1.6 0.0 0.0
06:45 9.6 7.5 87 1022.2 1.6 S 1.6 0.0 0.0
06:46 9.7 7.6 87 1022.0 2.2 S 2.2 0.0 0.0
06:47 9.7 7.6 87 1022.3 2.2 S 2.2 0.0 0.0
06:48 9.7 7.6 87 1022.0 2.2 S 2.2 0.0 0.0
06:49 9.7 7.6 87 1022.2 2.2 S 2.2 0.0 0.0
06:50 9.8 7.7 87 1022.1 2.2 SW 2.2 0.0 0.0
06:51 9.8 7.7 87 1022.3 2.2 S 2.2 0.0 0.0
06:52 9.8 7.7 87 1022.2 2.2 S 2.2 0.0 0.0
06:54 9.8 7.7 87 1022.3 2.2 S 2.2 0.0 0.0
06:55 9.8 7.7 87 1022.3 2.2 S 2.2 0.0 0.0
06:56 9.9 7.8 87 1022.2 2.2 S 2.2 0.0 0.0
06:57 9.9 7.8 87 1022.4 3.1 WNW 3.1 0.0 0.0
06:58 9.9 7.8 87 1022.2 3.1 W 3.1 0.0 0.0
06:59 9.9 8.0 88 1022.2 2.2 W 3.1 0.0 0.0
07:00 9.9 8.0 88 1022.2 2.2 SW 3.1 0.0 0.0
07:01 9.9 8.0 88 1022.2 2.2 SW 3.1 0.0 0.0
07:02 10.0 8.1 88 1022.1 3.1 N 3.1 0.0 0.0
07:03 10.0 8.1 88 1022.1 3.8 W 3.8 0.0 0.0
07:04 10.1 8.2 88 1022.0 5.4 NE 5.4 0.0 0.0
07:05 10.1 8.2 88 1022.2 6.9 W 6.9 0.0 0.0
07:06 10.2 8.3 88 1022.1 5.4 W 6.9 0.0 0.0
07:08 10.3 8.4 88 1022.1 4.5 SW 6.9 0.0 0.0
07:09 10.4 8.7 89 1022.3 6.9 W 6.9 0.0 0.0
07:10 10.4 8.7 89 1022.0 6.9 W 6.9 0.0 0.0
07:11 10.5 8.8 89 1021.9 5.4 SW 6.9 0.0 0.0
07:12 10.5 8.8 89 1022.0 6.0 W 6.9 0.0 0.0
07:13 10.7 9.0 89 1022.2 6.9 W 6.9 0.0 0.0
07:14 10.7 9.0 89 1021.9 6.9 S 6.9 0.0 0.0
07:15 10.8 9.1 89 1022.1 5.4 W 6.9 0.0 0.0
07:16 10.9 9.3 90 1022.1 5.4 SW 6.9 0.0 0.0
07:17 10.9 9.3 90 1022.0 6.9 WNW 6.9 0.0 0.0
07:18 11.0 9.4 90 1021.9 5.4 W 6.9 0.0 0.0
07:19 11.0 9.4 90 1021.9 5.4 W 6.9 0.0 0.0
07:20 11.1 9.5 90 1021.9 4.5 NW 6.9 0.0 0.0
07:22 11.2 9.6 90 1021.9 6.9 SW 8.3 0.0 0.0
07:23 11.2 9.6 90 1021.9 6.9 SW 8.3 0.0 0.0
07:24 11.2 9.6 90 1022.0 7.6 W 8.3 0.0 0.0
07:25 11.3 9.7 90 1022.0 6.0 W 8.3 0.0 0.0
07:26 11.3 9.7 90 1021.9 6.0 W 8.3 0.0 0.0
07:27 11.3 9.7 90 1022.1 5.4 W 8.3 0.0 0.0
07:28 11.3 9.7 90 1021.8 5.4 W 8.3 0.0 0.0
07:29 11.4 9.8 90 1022.0 7.6 SW 8.3 0.0 0.0
07:30 11.5 9.9 90 1021.9 8.3 SW 8.3 0.0 0.0
07:31 11.5 9.9 90 1021.9 6.9 SW 8.3 0.0 0.0
07:32 11.6 10.0 90 1022.2 6.9 SW 8.3 0.0 0.0
07:33 11.6 10.0 90 1021.9 6.9 SW 8.3 0.0 0.0
07:34 11.7 10.3 91 1021.8 5.4 W 8.3 0.0 0.0
07:36 11.7 10.3 91 1021.9 6.0 NW 8.3 0.0 0.0
07:37 11.8 10.4 91 1022.0 5.4 W 8.3 0.0 0.0
07:38 11.8 10.4 91 1021.9 6.0 W 8.3 0.0 0.0
07:39 11.8 10.4 91 1021.9 6.0 SW 8.3 0.0 0.0
07:40 11.9 10.5 91 1022.1 6.0 W 8.3 0.0 0.0
07:41 11.9 10.5 91 1021.9 6.9 W 8.3 0.0 0.0
07:42 12.0 10.6 91 1021.8 6.9 W 6.9 0.0 0.0
07:43 12.0 10.6 91 1021.9 5.4 NW 6.9 0.0 0.0
07:44 12.1 10.7 91 1021.9 7.6 W 7.6 0.0 0.0
07:45 12.1 10.7 91 1022.0 7.6 SW 7.6 0.0 0.0
07:46 12.2 10.8 91 1022.1 9.8 W 9.8 0.0 0.0
07:47 12.3 10.9 91 1021.9 8.3 W 9.8 0.0 0.0
07:48 12.3 10.9 91 1022.2 8.3 W 9.8 0.0 0.0
07:49 12.3 10.9 91 1022.0 8.3 W 9.8 0.0 0.0
07:51 12.4 11.0 91 1022.0 4.5 W 9.8 0.0 0.0
07:52 12.4 11.0 91 1022.0 6.0 W 9.8 0.0 0.0
07:53 12.5 10.4 87 1021.9 4.5 W 9.8 0.0 0.0
07:54 12.5 10.4 87 1022.1 4.5 W 9.8 0.0 0.0
07:55 12.5 10.4 87 1022.2 4.5 W 9.8 0.0 0.0
07:56 12.5 10.4 87 1022.1 4.5 W 9.8 0.0 0.0
07:57 12.6 10.5 87 1022.2 4.5 W 9.8 0.0 0.0
07:58 12.6 10.5 87 1022.1 4.5 W 8.3 0.0 0.0
07:59 12.7 10.6 87 1022.0 10.7 W 10.7 0.0 0.0
08:00 12.7 10.6 87 1022.2 10.7 W 10.7 0.0 0.0
08:01 12.7 10.6 87 1022.1 10.7 W 10.7 0.0 0.0
08:02 12.7 10.6 87 1022.0 9.8 W 10.7 0.0 0.0
08:04 12.7 10.6 87 1022.2 7.6 WNW 10.7 0.0 0.0
08:05 12.7 10.4 86 1022.1 5.4 NW 10.7 0.0 0.0
08:06 12.7 10.4 86 1022.1 6.0 W 10.7 0.0 0.0
08:07 12.7 10.4 86 1022.1 5.4 SW 10.7 0.0 0.0
08:08 12.7 10.4 86 1022.1 5.4 W 10.7 0.0 0.0
08:09 12.8 10.5 86 1022.0 6.0 W 10.7 0.0 0.0
08:10 12.8 10.5 86 1022.1 6.9 SW 10.7 0.0 0.0
08:11 12.8 10.5 86 1022.1 6.9 SW 10.7 0.0 0.0
08:12 12.9 10.4 85 1021.9 6.0 W 9.8 0.0 0.0
08:13 12.9 10.4 85 1021.9 6.0 W 9.8 0.0 0.0
08:14 13.0 10.5 85 1021.9 5.4 NW 7.6 0.0 0.0
08:15 13.0 10.5 85 1021.9 7.6 NW 7.6 0.0 0.0
08:16 13.0 10.5 85 1021.8 5.4 SW 7.6 0.0 0.0
08:17 13.0 10.5 85 1021.9 4.5 W 7.6 0.0 0.0
08:19 13.1 10.6 85 1021.7 4.5 SW 7.6 0.0 0.0
08:20 13.1 10.6 85 1022.0 6.9 SW 7.6 0.0 0.0
08:21 13.2 10.7 85 1022.0 6.9 W 9.8 0.0 0.0
08:22 13.2 10.7 85 1021.8 7.6 W 9.8 0.0 0.0
08:23 13.2 10.6 84 1022.0 7.6 SW 9.8 0.0 0.0
08:24 13.2 10.6 84 1022.2 7.6 NW 9.8 0.0 0.0
08:25 13.3 10.7 84 1022.0 7.6 SW 9.8 0.0 0.0
08:26 13.3 10.7 84 1021.9 10.7 W 10.7 0.0 0.0
08:27 13.3 10.7 84 1022.0 8.3 W 10.7 0.0 0.0
08:28 13.4 10.8 84 1022.0 5.4 W 10.7 0.0 0.0
08:29 13.4 10.8 84 1022.1 7.6 W 10.7 0.0 0.0
08:30 13.4 10.8 84 1021.9 7.6 W 10.7 0.0 0.0
08:31 13.5 10.9 84 1021.9 8.3 W 10.7 0.0 0.0
08:33 13.5 10.7 83 1022.1 9.8 W 10.7 0.0 0.0
08:34 13.5 10.7 83 1022.1 9.8 W 10.7 0.0 0.0
08:35 13.5 10.7 83 1022.2 9.8 W 10.7 0.0 0.0
08:36 13.5 10.7 83 1022.0 7.6 W 10.7 0.0 0.0
08:37 13.5 10.7 83 1022.1 7.6 W 10.7 0.0 0.0
08:38 13.5 10.7 83 1022.2 7.6 W 9.8 0.0 0.0
08:39 13.6 10.6 82 1022.2 11.4 SW 11.4 0.0 0.0
08:40 13.6 10.6 82 1021.9 9.2 NW 11.4 0.0 0.0
08:41 13.6 10.6 82 1022.0 8.3 W 11.4 0.0 0.0
08:42 13.6 10.4 81 1022.1 7.6 W 11.4 0.0 0.0
08:43 13.6 10.4 81 1022.2 7.6 SW 11.4 0.0 0.0
08:44 13.6 10.4 81 1021.9 6.9 W 11.4 0.0 0.0
08:46 13.7 10.5 81 1021.9 7.6 W 11.4 0.0 0.0
08:47 13.7 10.5 81 1021.9 7.6 W 11.4 0.0 0.0
08:48 13.7 10.5 81 1022.3 10.7 W 11.4 0.0 0.0
08:49 13.8 10.6 81 1022.1 7.6 SW 11.4 0.0 0.0
08:50 13.8 10.6 81 1022.2 9.2 W 10.7 0.0 0.0
08:51 13.8 10.6 81 1022.2 9.2 SW 10.7 0.0 0.0
08:52 13.8 10.6 81 1022.1 10.7 W 10.7 0.0 0.0
08:53 13.8 10.4 80 1022.1 5.4 SW 10.7 0.0 0.0
08:54 13.8 10.4 80 1022.1 8.3 SW 10.7 0.0 0.0
08:55 13.8 10.4 80 1021.9 8.3 W 10.7 0.0 0.0
08:56 13.8 10.4 80 1021.8 7.6 W 10.7 0.0 0.0
08:57 13.9 10.5 80 1021.9 6.9 W 10.7 0.0 0.0
08:58 13.9 10.5 80 1021.9 6.0 NW 10.7 0.0 0.0
08:59 13.9 10.5 80 1021.9 7.6 W 10.7 0.0 0.0
09:01 13.9 10.5 80 1021.9 7.6 W 10.7 0.0 0.0
09:02 14.0 10.6 80 1021.9 9.8 W 9.8 0.0 0.0
09:03 14.0 10.4 79 1021.7 7.6 W 9.8 0.0 0.0
09:04 14.0 10.4 79 1021.9 8.3 WSW 9.8 0.0 0.0
09:05 14.0 10.4 79 1021.8 9.8 W 9.8 0.0 0.0
09:06 14.1 10.5 79 1022.0 8.3 W 9.8 0.0 0.0
09:07 14.1 10.5 79 1022.0 8.3 W 9.8 0.0 0.0
09:08 14.1 10.3 78 1022.0 8.3 SW 9.8 0.0 0.0
09:09 14.2 10.4 78 1021.8 8.3 SW 9.8 0.0 0.0
09:10 14.2 10.4 78 1022.1 7.6 SW 9.8 0.0 0.0
09:11 14.3 10.5 78 1022.0 8.3 W 9.8 0.0 0.0
09:13 14.3 10.5 78 1021.9 9.8 SW 9.8 0.0 0.0
09:14 14.3 10.5 78 1021.9 9.2 NW 9.8 0.0 0.0
09:15 14.3 10.3 77 1021.8 8.3 SW 9.8 0.0 0.0
09:16 14.3 10.3 77 1022.1 10.7 W 10.7 0.0 0.0
09:17 14.3 10.3 77 1022.1 10.7 SW 10.7 0.0 0.0
09:18 14.3 10.3 77 1022.1 6.9 S 10.7 0.0 0.0
09:19 14.3 10.3 77 1022.0 10.7 SW 10.7 0.0 0.0
09:21 14.3 10.1 76 1021.9 10.7 W 10.7 0.0 0.0
09:22 14.3 10.1 76 1021.9 10.7 SW 10.7 0.0 0.0
09:23 14.3 10.1 76 1022.1 8.3 W 10.7 0.0 0.0
09:24 14.3 10.1 76 1022.3 6.0 SW 10.7 0.0 0.0
09:25 14.3 10.1 76 1022.1 10.7 SW 10.7 0.0 0.0
09:26 14.3 10.1 76 1022.0 10.7 W 10.7 0.0 0.0
09:27 14.3 10.1 76 1022.0 9.8 W 10.7 0.0 0.0
09:28 14.4 10.2 76 1022.1 9.8 W 10.7 0.0 0.0
09:29 14.4 10.2 76 1022.1 9.8 S 10.7 0.0 0.0
09:30 14.4 10.2 76 1022.0 11.4 SW 11.4 0.0 0.0
09:31 14.4 10.2 76 1021.8 11.4 SW 11.4 0.0 0.0
09:32 14.4 10.2 76 1021.8 8.3 W 11.4 0.0 0.0
09:33 14.5 10.3 76 1021.9 7.6 W 11.4 0.0 0.0
09:35 14.5 10.1 75 1021.9 7.6 SW 11.4 0.0 0.0
09:36 14.5 10.1 75 1021.9 7.6 SW 11.4 0.0 0.0
09:37 14.5 10.1 75 1022.0 8.3 SW 11.4 0.0 0.0
09:38 14.5 10.1 75 1022.0 8.3 W 11.4 0.0 0.0
09:39 14.5 10.1 75 1022.0 6.9 SW 11.4 0.0 0.0
09:40 14.6 10.2 75 1021.9 10.7 WSW 11.4 0.0 0.0
09:41 14.5 10.1 75 1022.0 9.8 SW 11.4 0.0 0.0
09:42 14.5 9.9 74 1022.1 9.8 NW 10.7 0.0 0.0
09:43 14.5 9.9 74 1021.8 8.3 SW 10.7 0.0 0.0
09:44 14.5 9.9 74 1021.9 8.3 SW 10.7 0.0 0.0
09:45 14.5 9.9 74 1022.0 9.8 W 10.7 0.0 0.0
09:46 14.6 10.2 75 1022.2 9.8 SW 10.7 0.0 0.0
09:47 14.6 10.2 75 1022.1 9.8 SW 10.7 0.0 0.0
09:49 14.6 10.2 75 1021.9 9.2 SW 10.7 0.0 0.0
09:50 14.6 10.2 75 1021.9 9.8 NW 10.7 0.0 0.0
09:51 14.6 10.2 75 1021.9 9.8 W 10.7 0.0 0.0
09:52 14.6 10.2 75 1022.1 11.4 SW 11.4 0.0 0.0
09:53 14.5 9.9 74 1021.8 9.2 W 11.4 0.0 0.0
09:54 14.5 9.9 74 1021.9 6.9 W 11.4 0.0 0.0
09:55 14.5 9.9 74 1021.9 6.9 W 11.4 0.0 0.0
09:56 14.5 9.9 74 1021.9 6.0 SW 11.4 0.0 0.0
09:57 14.5 9.9 74 1022.1 6.0 SW 11.4 0.0 0.0
09:58 14.6 10.0 74 1022.0 7.6 SW 11.4 0.0 0.0
09:59 14.7 10.3 75 1021.8 6.0 SW 11.4 0.0 0.0
10:00 14.7 10.3 75 1021.9 6.0 SW 11.4 0.0 0.0
10:01 14.7 10.3 75 1021.9 6.0 SW 11.4 0.0 0.0
10:03 14.7 10.3 75 1022.0 6.0 SW 7.6 0.0 0.0
10:04 14.7 10.3 75 1022.0 6.0 SW 7.6 0.0 0.0
10:05 15.3 10.9 75 1022.0 12.1 SW 12.1 0.0 0.0
10:06 15.4 11.0 75 1021.8 8.3 SW 12.1 0.0 0.0
10:07 15.5 11.1 75 1021.9 10.7 W 12.1 0.0 0.0
10:08 15.5 11.1 75 1021.8 10.7 W 12.1 0.0 0.0
10:09 15.5 10.9 74 1021.8 9.8 W 12.1 0.0 0.0
10:10 15.4 10.8 74 1022.0 10.7 WSW 12.1 0.0 0.0
10:11 15.4 10.6 73 1022.0 7.6 SW 12.1 0.0 0.0
10:12 15.3 10.5 73 1022.0 9.2 SW 12.1 0.0 0.0
10:13 15.3 10.5 73 1022.0 9.8 W 12.1 0.0 0.0
10:14 15.2 10.4 73 1021.7 11.4 W 12.1 0.0 0.0
10:15 15.2 10.4 73 1021.9 11.4 W 12.1 0.0 0.0
10:16 15.2 10.4 73 1022.0 13.6 SW 13.6 0.0 0.0
10:18 15.1 10.1 72 1021.8 10.7 W 13.6 0.0 0.0
10:19 15.0 10.0 72 1022.0 9.8 SW 13.6 0.0 0.0
10:20 15.0 10.0 72 1022.1 8.3 WNW 13.6 0.0 0.0
10:21 15.0 10.2 73 1021.9 10.7 SW 13.6 0.0 0.0
10:22 15.0 10.2 73 1022.0 13.0 W 13.6 0.0 0.0
10:23 15.1 10.3 73 1021.9 10.7 SW 13.6 0.0 0.0
10:24 15.1 10.3 73 1021.8 9.8 SW 13.6 0.0 0.0
10:25 15.1 10.5 74 1021.9 10.7 WSW 13.6 0.0 0.0
10:26 15.2 10.4 73 1022.0 11.4 WSW 13.6 0.0 0.0
10:27 15.2 10.4 73 1021.8 10.7 SW 13.0 0.0 0.0
10:28 15.2 10.4 73 1021.9 9.8 SW 13.0 0.0 0.0
10:29 15.2 10.4 73 1021.8 12.1 W 13.0 0.0 0.0
10:30 15.1 10.1 72 1022.1 13.6 SW 13.6 0.0 0.0
10:32 15.1 10.1 72 1022.0 13.6 SW 13.6 0.0 0.0
10:33 15.0 10.0 72 1021.9 14.5 SW 14.5 0.0 0.0
10:34 14.9 9.9 72 1021.9 9.8 SW 14.5 0.0 0.0
10:35 14.9 9.9 72 1022.0 13.0 SW 14.5 0.0 0.0
10:36 14.9 9.9 72 1022.1 11.4 SW 14.5 0.0 0.0
10:37 14.9 10.1 73 1021.8 9.2 W 14.5 0.0 0.0
10:38 14.9 10.1 73 1022.0 14.5 SW 14.5 0.0 0.0
10:39 15.0 10.2 73 1022.1 12.1 SW 14.5 0.0 0.0
10:40 14.9 10.1 73 1021.8 13.0 SW 14.5 0.0 0.0
10:41 14.9 10.1 73 1022.0 13.0 W 14.5 0.0 0.0
10:42 15.0 10.2 73 1021.8 9.8 W 14.5 0.0 0.0
10:43 15.0 10.2 73 1021.8 11.4 SW 14.5 0.0 0.0
10:44 15.0 10.2 73 1021.8 11.4 SW 14.5 0.0 0.0
10:45 15.0 10.2 73 1021.9 10.7 SW 14.5 0.0 0.0
10:47 15.2 10.4 73 1021.9 12.1 W 14.5 0.0 0.0
10:48 15.2 10.4 73 1021.9 12.1 W 14.5 0.0 0.0
10:49 15.3 10.5 73 1021.9 13.6 W 13.6 0.0 0.0
10:50 15.4 10.6 73 1022.0 13.6 W 13.6 0.0 0.0
10:51 15.4 10.6 73 1021.9 12.1 W 13.6 0.0 0.0
10:52 15.5 10.7 73 1021.8 9.2 SW 13.6 0.0 0.0
10:53 15.6 10.8 73 1021.7 11.4 SW 13.6 0.0 0.0
10:54 15.7 10.9 73 1021.8 9.8 SW 13.6 0.0 0.0
10:55 15.6 10.6 72 1021.6 14.5 W 14.5 0.0 0.0
10:56 15.7 10.9 73 1021.7 10.7 SW 14.5 0.0 0.0
10:57 15.7 10.9 73 1021.8 12.1 W 14.5 0.0 0.0
10:58 15.6 10.6 72 1021.8 9.8 W 14.5 0.0 0.0
10:59 15.6 10.4 71 1021.8 10.7 SW 14.5 0.0 0.0
11:01 15.6 10.4 71 1021.9 10.7 SW 14.5 0.0 0.0
11:02 15.6 10.4 71 1021.7 10.7 SW 14.5 0.0 0.0
11:03 15.6 10.4 71 1021.7 10.7 SW 14.5 0.0 0.0
11:04 15.6 10.4 71 1021.7 10.7 SW 14.5 0.0 0.0
11:05 15.7 10.5 71 1021.8 13.0 SW 14.5 0.0 0.0
11:06 15.8 10.6 71 1022.1 13.0 SW 13.0 0.0 0.0
11:07 15.8 10.6 71 1021.8 12.1 SW 13.0 0.0 0.0
11:08 15.8 10.3 70 1021.9 12.1 S 13.0 0.0 0.0
11:09 15.7 10.3 70 1021.9 8.3 SW 13.0 0.0 0.0
11:10 15.6 10.2 70 1021.8 9.2 W 13.0 0.0 0.0
11:11 15.6 10.2 70 1021.8 11.4 W 13.0 0.0 0.0
11:12 15.6 10.4 71 1021.9 10.7 SSW 13.0 0.0 0.0
11:13 15.6 10.4 71 1021.6 12.1 SW 13.0 0.0 0.0
11:14 15.6 10.2 70 1021.7 13.6 W 13.6 0.0 0.0
11:15 15.6 10.2 70 1021.7 11.4 SW 13.6 0.0 0.0
11:16 15.6 10.2 70 1021.6 10.7 SW 13.6 0.0 0.0
11:17 15.7 10.3 70 1021.7 9.8 SW 13.6 0.0 0.0
11:18 15.9 10.7 71 1021.9 12.1 W 13.6 0.0 0.0
11:20 16.0 10.5 70 1021.6 13.0 SW 13.6 0.0 0.0
11:21 16.0 10.5 70 1021.7 14.5 W 14.5 0.0 0.0
11:22 16.0 10.5 70 1021.6 12.1 SW 14.5 0.0 0.0
11:23 16.1 10.6 70 1021.8 11.4 SW 14.5 0.0 0.0
11:24 16.1 10.6 70 1021.6 11.4 SW 14.5 0.0 0.0
11:25 16.2 10.7 70 1021.8 10.7 W 14.5 0.0 0.0
11:26 16.1 10.6 70 1021.8 10.7 SW 14.5 0.0 0.0
11:27 16.1 10.4 69 1022.0 11.4 SW 14.5 0.0 0.0
11:28 16.1 10.4 69 1021.8 7.6 SW 14.5 0.0 0.0
11:29 16.1 10.4 69 1021.7 9.8 SW 14.5 0.0 0.0
11:30 16.2 10.7 70 1021.8 9.2 S 14.5 0.0 0.0
11:31 16.3 10.8 70 1021.6 8.3 W 12.1 0.0 0.0
11:32 16.3 10.8 70 1021.6 9.2 W 11.4 0.0 0.0
11:33 16.3 10.8 70 1021.7 9.8 SW 11.4 0.0 0.0
11:35 16.2 10.7 70 1021.9 8.3 SW 11.4 0.0 0.0
11:36 16.2 10.7 70 1021.7 10.7 WNW 11.4 0.0 0.0
11:37 16.2 10.7 70 1021.6 8.3 SW 11.4 0.0 0.0
11:38 16.3 11.0 71 1021.7 9.2 S 10.7 0.0 0.0
11:39 16.5 11.2 71 1021.7 10.7 W 10.7 0.0 0.0
11:40 16.6 11.3 71 1021.7 11.4 SW 11.4 0.0 0.0
11:41 16.8 11.5 71 1021.6 11.4 SW 11.4 0.0 0.0
11:42 16.9 11.6 71 1021.6 12.1 SW 12.1 0.0 0.0
11:43 16.8 11.3 70 1021.7 15.9 SW 15.9 0.0 0.0
11:44 16.8 11.3 70 1021.7 15.9 SW 15.9 0.0 0.0
11:45 16.8 11.3 70 1021.7 11.4 W 15.9 0.0 0.0
11:46 16.7 11.0 69 1021.6 13.6 SW 15.9 0.0 0.0
11:47 16.7 11.0 69 1021.5 11.4 SW 15.9 0.0 0.0
11:49 16.6 11.1 70 1021.7 12.1 SW 15.9 0.0 0.0
11:50 16.7 11.2 70 1021.7 12.1 SW 15.9 0.0 0.0
11:51 16.8 11.3 70 1021.7 9.8 W 15.9 0.0 0.0
11:52 17.0 11.5 70 1021.7 9.8 S 15.9 0.0 0.0
11:53 17.0 11.5 70 1021.7 13.6 SE 15.9 0.0 0.0
11:54 17.0 11.5 70 1021.5 11.4 W 15.9 0.0 0.0
11:55 17.1 11.6 70 1021.5 13.6 W 13.6 0.0 0.0
11:56 17.0 11.5 70 1021.6 15.9 W 15.9 0.0 0.0
11:57 17.1 11.6 70 1021.7 12.1 SW 15.9 0.0 0.0
11:58 17.0 11.1 68 1021.5 13.0 SW 15.9 0.0 0.0
11:59 17.0 10.8 67 1021.5 10.7 SW 15.9 0.0 0.0
12:00 17.0 10.8 67 1021.5 10.7 SW 15.9 0.0 0.0
12:01 17.0 10.8 67 1021.5 10.7 SW 15.9 0.0 0.0
12:02 17.0 11.5 70 1021.6 10.7 W 15.9 0.0 0.0
12:04 17.1 11.6 70 1021.5 11.4 SW 15.9 0.0 0.0
12:05 17.1 11.6 70 1021.6 9.2 SW 15.9 0.0 0.0
12:06 17.1 11.6 70 1021.5 13.0 SW 13.0 0.0 0.0
12:07 17.1 11.6 70 1021.6 13.0 SW 13.0 0.0 0.0
12:08 17.1 11.2 68 1021.7 13.0 SW 13.0 0.0 0.0
12:09 16.9 10.7 67 1021.8 9.8 SW 13.0 0.0 0.0
12:10 16.9 11.2 69 1021.6 9.8 SW 13.0 0.0 0.0
12:11 17.0 11.5 70 1021.6 11.4 W 13.0 0.0 0.0
12:12 17.0 11.3 69 1021.5 9.2 SW 13.0 0.0 0.0
12:13 16.9 11.2 69 1021.5 9.2 NW 13.0 0.0 0.0
12:14 16.9 11.4 70 1021.6 11.4 WSW 13.0 0.0 0.0
12:15 16.9 11.2 69 1021.5 13.0 SW 13.0 0.0 0.0
12:16 16.8 10.9 68 1021.5 13.0 W 13.0 0.0 0.0
12:18 16.7 10.8 68 1021.7 13.6 SW 13.6 0.0 0.0
12:19 16.7 10.8 68 1021.7 13.6 SW 13.6 0.0 0.0
12:20 16.6 10.7 68 1021.6 13.6 SW 13.6 0.0 0.0
12:21 16.6 10.9 69 1021.6 10.7 W 13.6 0.0 0.0
12:22 16.6 10.9 69 1021.3 9.8 W 13.6 0.0 0.0
12:23 16.6 11.1 70 1021.4 10.7 W 13.6 0.0 0.0
12:24 16.7 11.2 70 1021.4 11.4 SW 13.6 0.0 0.0
12:25 16.8 11.3 70 1021.4 14.5 W 14.5 0.0 0.0
12:26 16.9 11.2 69 1021.4 9.8 W 15.2 0.0 0.0
12:27 16.9 11.2 69 1021.4 9.2 SW 15.2 0.0 0.0
12:28 17.0 11.3 69 1021.4 11.4 SW 15.2 0.0 0.0
12:29 17.0 11.3 69 1021.4 11.4 SW 15.2 0.0 0.0
12:30 17.1 11.4 69 1021.5 14.5 W 15.2 0.0 0.0
12:31 17.1 11.4 69 1021.5 14.5 W 15.2 0.0 0.0
12:33 17.3 11.6 69 1021.5 13.0 SW 15.2 0.0 0.0
12:34 17.3 11.6 69 1021.7 15.2 SW 15.2 0.0 0.0
12:35 17.4 11.7 69 1021.3 13.0 NW 15.2 0.0 0.0
12:36 17.4 11.7 69 1021.4 15.2 W 15.2 0.0 0.0
12:37 17.5 10.6 64 1021.5 15.2 SW 15.2 0.0 0.0
12:38 17.6 10.7 64 1021.5 17.4 W 17.4 0.0 0.0
12:39 17.6 10.7 64 1021.5 17.4 W 17.4 0.0 0.0
12:40 17.6 10.7 64 1021.5 17.4 W 17.4 0.0 0.0
12:41 17.5 10.1 62 1021.4 13.0 SW 17.4 0.0 0.0
12:42 17.5 10.4 63 1021.5 17.4 SW 17.4 0.0 0.0
12:43 17.5 10.4 63 1021.5 15.9 SW 17.4 0.0 0.0
12:44 17.6 10.5 63 1021.6 14.5 SW 17.4 0.0 0.0
12:45 17.6 10.5 63 1021.5 19.0 SW 19.0 0.0 0.0
12:46 17.7 10.3 62 1021.4 14.5 W 19.0 0.0 0.0
12:48 17.7 10.6 63 1021.3 12.1 E 19.0 0.0 0.0
12:49 17.8 10.9 64 1021.3 15.9 W 19.0 0.0 0.0
12:50 17.9 10.8 63 1021.3 15.9 W 19.0 0.0 0.0
12:51 17.8 10.4 62 1021.5 17.4 WSW 19.0 0.0 0.0
12:52 17.8 10.4 62 1021.4 17.4 WSW 19.0 0.0 0.0
12:53 17.8 10.4 62 1021.4 18.3 W 19.0 0.0 0.0
12:54 17.7 10.3 62 1021.5 18.3 W 19.0 0.0 0.0
12:55 17.7 10.3 62 1021.4 15.2 SW 19.0 0.0 0.0
12:56 17.7 10.3 62 1021.7 15.9 W 19.0 0.0 0.0
12:57 17.7 10.1 61 1021.4 13.6 W 19.0 0.0 0.0
12:58 17.6 10.2 62 1021.4 16.8 SW 19.0 0.0 0.0
12:59 17.6 10.0 61 1021.2 16.8 SW 19.0 0.0 0.0
13:00 17.6 10.0 61 1021.4 16.8 SW 19.0 0.0 0.0
13:01 17.6 10.0 61 1021.3 16.8 SW 19.0 0.0 0.0
13:03 17.4 10.8 65 1021.4 16.8 SW 18.3 0.0 0.0
13:04 17.4 10.8 65 1021.4 16.8 SW 18.3 0.0 0.0
13:05 17.4 10.8 65 1021.5 18.3 SW 18.3 0.0 0.0
13:06 17.3 10.7 65 1021.4 18.3 WNW 18.3 0.0 0.0
13:07 17.3 10.7 65 1021.3 15.9 W 18.3 0.0 0.0
13:08 17.3 10.7 65 1021.2 15.9 W 18.3 0.0 0.0
13:09 17.1 10.5 65 1021.2 15.2 SW 18.3 0.0 0.0
13:10 17.1 10.5 65 1021.4 15.2 W 18.3 0.0 0.0
13:11 17.1 10.5 65 1021.2 14.5 SW 18.3 0.0 0.0
13:12 17.2 10.8 66 1021.2 15.9 SW 18.3 0.0 0.0
13:13 17.2 11.0 67 1021.1 16.8 S 18.3 0.0 0.0
13:14 17.2 11.0 67 1021.1 15.2 SW 18.3 0.0 0.0
13:16 17.3 11.1 67 1021.1 14.5 SW 18.3 0.0 0.0
13:17 17.3 10.9 66 1021.1 17.4 S 17.4 0.0 0.0
13:18 17.3 10.9 66 1021.2 17.4 SW 17.4 0.0 0.0
13:19 17.3 10.9 66 1021.1 16.8 W 17.4 0.0 0.0
13:20 17.3 10.9 66 1020.9 13.0 SW 17.4 0.0 0.0
13:21 17.4 11.4 68 1021.2 12.1 W 17.4 0.0 0.0
13:22 17.6 10.7 64 1021.2 17.4 SW 17.4 0.0 0.0
13:24 17.6 10.5 63 1021.0 13.6 NW 17.4 0.0 0.0
13:25 17.6 10.5 63 1021.0 14.5 W 17.4 0.0 0.0
13:26 17.6 10.5 63 1021.1 16.8 SW 17.4 0.0 0.0
13:27 17.6 10.5 63 1021.0 16.8 SW 17.4 0.0 0.0
13:28 17.6 10.5 63 1021.0 19.0 W 19.0 0.0 0.0
13:29 17.5 10.1 62 1021.0 16.8 W 19.0 0.0 0.0
13:30 17.4 11.0 66 1021.3 13.0 SW 19.0 0.0 0.0
13:31 17.5 10.4 63 1021.1 14.5 SW 19.0 0.0 0.0
13:32 17.5 10.4 63 1021.3 14.5 SW 19.0 0.0 0.0
13:33 17.6 10.7 64 1021.2 13.0 SW 19.0 0.0 0.0
13:34 17.6 10.5 63 1021.3 15.9 W 19.0 0.0 0.0
13:35 17.5 10.4 63 1021.1 15.9 SW 19.0 0.0 0.0
13:36 17.5 10.4 63 1021.2 16.8 W 19.0 0.0 0.0
13:37 17.5 10.6 64 1021.2 15.2 SW 19.0 0.0 0.0
13:38 17.5 10.6 64 1021.1 15.2 S 19.0 0.0 0.0
13:40 17.3 10.9 66 1021.2 18.3 SE 18.3 0.0 0.0
13:41 17.1 10.7 66 1021.1 14.5 W 18.3 0.0 0.0
13:42 17.0 10.8 67 1021.1 13.6 SW 18.3 0.0 0.0
13:43 17.0 10.8 67 1021.0 15.9 S 18.3 0.0 0.0
13:44 16.9 11.0 68 1021.1 14.5 ENE 18.3 0.0 0.0
13:45 16.8 11.1 69 1021.1 15.2 SW 18.3 0.0 0.0
13:46 16.8 11.3 70 1021.0 13.6 SW 18.3 0.0 0.0
13:47 16.8 11.3 70 1021.1 13.0 S 18.3 0.0 0.0
13:48 16.9 11.4 70 1020.9 14.5 SW 18.3 0.0 0.0
13:49 16.8 11.3 70 1021.2 14.5 SW 18.3 0.0 0.0
13:50 16.8 11.3 70 1020.9 13.6 SW 18.3 0.0 0.0
13:51 16.8 11.3 70 1021.2 13.0 W 15.9 0.0 0.0
13:52 16.9 11.4 70 1021.0 13.6 W 15.9 0.0 0.0
13:53 16.9 11.6 71 1021.1 12.1 W 15.2 0.0 0.0
13:54 17.0 11.5 70 1020.9 19.0 SW 19.0 0.0 0.0
13:56 16.9 11.4 70 1021.0 13.6 S 19.0 0.0 0.0
13:57 16.9 11.4 70 1020.9 12.1 W 19.0 0.0 0.0
13:58 16.9 11.4 70 1021.2 16.8 W 19.0 0.0 0.0
13:59 16.9 11.4 70 1021.0 14.5 SW 19.0 0.0 0.0
14:00 16.9 11.4 70 1021.2 14.5 SW 19.0 0.0 0.0
14:01 16.9 11.4 70 1021.0 14.5 SW 19.0 0.0 0.0
14:02 16.9 11.4 70 1020.9 14.5 SW 19.0 0.0 0.0
14:03 16.9 11.4 70 1021.0 14.5 SW 19.0 0.0 0.0
14:04 16.9 11.4 70 1020.9 14.5 SW 19.0 0.0 0.0
14:05 16.8 11.3 70 1021.1 18.3 SW 18.3 0.0 0.0
14:06 16.8 11.3 70 1021.0 13.6 SW 18.3 0.0 0.0
14:07 16.8 11.3 70 1020.9 13.6 SW 18.3 0.0 0.0
14:08 16.8 11.3 70 1020.9 17.4 W 18.3 0.0 0.0
14:09 16.9 11.4 70 1021.0 17.4 SW 18.3 0.0 0.0
14:10 16.9 11.4 70 1020.9 14.5 SW 18.3 0.0 0.0
14:12 16.9 11.4 70 1020.9 13.6 W 18.3 0.0 0.0
14:13 16.9 11.4 70 1021.0 19.0 S 19.0 0.0 0.0
14:14 16.9 11.2 69 1021.0 19.0 S 19.0 0.0 0.0
14:15 16.9 11.2 69 1021.0 14.5 SW 19.0 0.0 0.0
14:16 16.9 11.2 69 1020.9 18.3 SW 19.0 0.0 0.0
14:17 16.8 10.9 68 1021.1 18.3 SW 19.0 0.0 0.0
14:18 16.8 10.9 68 1021.0 18.3 SW 19.0 0.0 0.0
14:19 16.7 10.8 68 1021.1 13.6 SW 19.0 0.0 0.0
14:20 16.7 10.8 68 1021.1 17.4 W 19.0 0.0 0.0
14:21 16.6 10.9 69 1020.8 19.0 W 19.0 0.0 0.0
14:22 16.7 11.0 69 1021.2 14.5 SW 19.0 0.0 0.0
14:23 16.7 11.0 69 1021.0 15.9 SW 19.0 0.0 0.0
14:24 16.8 11.1 69 1020.9 15.2 SW 19.0 0.0 0.0
14:25 16.8 11.1 69 1021.0 13.6 WSW 19.0 0.0 0.0
14:26 16.9 11.2 69 1020.9 14.5 SW 19.0 0.0 0.0
14:28 16.9 11.2 69 1021.0 16.8 SW 19.0 0.0 0.0
14:29 16.9 11.4 70 1021.1 19.7 W 19.7 0.0 0.0
14:30 17.0 11.3 69 1021.0 13.6 SW 19.7 0.0 0.0
14:31 17.0 11.3 69 1021.0 15.9 W 19.7 0.0 0.0
14:32 17.0 11.3 69 1020.8 15.9 S 19.7 0.0 0.0
14:33 17.0 11.3 69 1020.8 13.0 SW 19.7 0.0 0.0
14:34 16.9 11.2 69 1021.0 14.5 SW 19.7 0.0 0.0
14:35 16.9 11.2 69 1021.1 14.5 S 19.7 0.0 0.0
14:36 16.8 11.1 69 1021.0 17.4 E 19.7 0.0 0.0
14:37 16.8 11.1 69 1020.8 17.4 E 19.7 0.0 0.0
14:38 16.7 11.2 70 1021.0 12.1 W 19.7 0.0 0.0
14:39 16.7 11.2 70 1021.0 16.8 W 17.4 0.0 0.0
14:40 16.7 11.2 70 1020.9 17.4 W 17.4 0.0 0.0
14:41 16.6 11.1 70 1020.9 15.2 W 17.4 0.0 0.0
14:43 16.6 11.1 70 1020.8 15.2 W 17.4 0.0 0.0
14:44 16.6 11.1 70 1021.1 15.2 SW 17.4 0.0 0.0
14:45 16.7 11.2 70 1021.2 17.4 WSW 17.4 0.0 0.0
14:46 16.8 11.3 70 1020.9 19.7 W 19.7 0.0 0.0
14:47 16.8 11.3 70 1020.9 19.7 W 19.7 0.0 0.0
14:48 16.8 11.3 70 1021.0 14.5 S 19.7 0.0 0.0
14:49 16.9 11.4 70 1021.1 13.6 W 19.7 0.0 0.0
14:50 17.0 11.7 71 1021.0 18.3 SW 19.7 0.0 0.0
14:51 17.1 11.6 70 1020.8 16.8 W 19.7 0.0 0.0
14:52 17.2 11.7 70 1021.0 15.2 SW 19.7 0.0 0.0
14:53 17.2 11.7 70 1020.9 13.0 W 19.7 0.0 0.0
14:54 17.3 11.8 70 1021.0 13.6 SW 19.7 0.0 0.0
14:55 17.2 11.7 70 1020.7 12.1 SW 19.7 0.0 0.0
14:57 17.3 11.8 70 1021.2 14.5 SW 19.7 0.0 0.0
14:58 17.3 11.8 70 1020.8 16.8 SW 18.3 0.0 0.0
14:59 17.3 11.8 70 1021.0 14.5 SW 18.3 0.0 0.0
15:00 17.3 11.8 70 1020.8 15.2 SW 18.3 0.0 0.0
15:01 17.3 11.8 70 1020.9 15.2 SW 18.3 0.0 0.0
15:02 17.2 11.7 70 1020.9 19.7 SW 19.7 0.0 0.0
15:03 17.2 11.7 70 1021.0 15.2 W 19.7 0.0 0.0
15:04 17.1 11.6 70 1021.0 18.3 SW 19.7 0.0 0.0
15:05 17.0 11.5 70 1020.9 13.0 S 19.7 0.0 0.0
15:06 16.9 11.4 70 1021.1 18.3 W 19.7 0.0 0.0
15:07 16.8 11.3 70 1021.0 13.6 W 19.7 0.0 0.0
15:08 16.8 11.3 70 1021.0 17.4 SW 19.7 0.0 0.0
15:09 16.7 11.2 70 1020.8 17.4 W 19.7 0.0 0.0
15:11 16.6 11.1 70 1021.0 13.0 SW 19.7 0.0 0.0
15:12 16.6 11.1 70 1021.0 15.2 NW 19.7 0.0 0.0
15:13 16.6 11.3 71 1021.2 15.9 S 18.3 0.0 0.0
15:14 16.6 11.1 70 1020.9 17.4 W 18.3 0.0 0.0
15:15 16.5 11.0 70 1020.9 13.6 SW 18.3 0.0 0.0
15:16 16.5 11.0 70 1021.0 15.9 NW 18.3 0.0 0.0
15:17 16.5 11.0 70 1021.0 15.9 W 17.4 0.0 0.0
15:19 16.4 11.1 71 1021.1 15.2 SW 17.4 0.0 0.0
15:20 16.4 11.1 71 1021.1 15.2 SW 17.4 0.0 0.0
15:21 16.5 11.2 71 1021.0 15.2 W 17.4 0.0 0.0
15:22 16.5 11.2 71 1021.0 13.0 W 17.4 0.0 0.0
15:23 16.5 11.2 71 1020.8 13.0 W 17.4 0.0 0.0
15:24 16.4 11.1 71 1020.9 15.2 W 17.4 0.0 0.0
15:25 16.3 11.0 71 1021.0 14.5 SW 15.9 0.0 0.0
15:26 16.3 11.0 71 1020.9 17.4 SW 17.4 0.0 0.0
15:27 16.2 10.9 71 1020.9 15.9 S 17.4 0.0 0.0
15:28 16.1 10.8 71 1021.0 15.9 SW 17.4 0.0 0.0
15:29 16.0 10.8 71 1021.1 18.3 W 18.3 0.0 0.0
15:30 15.9 10.7 71 1020.9 15.9 SW 18.3 0.0 0.0
15:31 15.8 10.6 71 1020.9 15.9 SW 18.3 0.0 0.0
15:32 15.8 10.6 71 1020.8 17.4 W 18.3 0.0 0.0
15:34 15.8 10.8 72 1020.9 18.3 W 18.3 0.0 0.0
15:35 15.9 10.9 72 1021.1 18.3 SW 18.3 0.0 0.0
15:36 15.9 10.9 72 1020.9 18.3 W 18.3 0.0 0.0
15:37 15.9 10.9 72 1021.2 15.9 W 18.3 0.0 0.0
15:38 15.9 10.9 72 1021.0 13.0 SW 18.3 0.0 0.0
15:39 15.9 10.9 72 1020.9 18.3 SW 18.3 0.0 0.0
15:40 15.9 10.9 72 1021.0 14.5 SW 18.3 0.0 0.0
15:41 16.0 11.0 72 1021.1 18.3 SW 18.3 0.0 0.0
15:42 15.9 10.9 72 1020.8 14.5 NW 18.3 0.0 0.0
15:43 15.9 10.9 72 1021.0 13.0 SW 18.3 0.0 0.0
15:44 15.9 10.9 72 1021.1 15.2 SW 18.3 0.0 0.0
15:45 15.9 10.9 72 1021.2 17.4 W 18.3 0.0 0.0
15:46 15.8 10.8 72 1021.0 14.5 W 18.3 0.0 0.0
15:47 15.8 10.8 72 1020.8 13.0 SW 18.3 0.0 0.0
15:49 15.8 10.8 72 1020.8 12.1 SW 18.3 0.0 0.0
15:50 15.8 10.8 72 1021.0 13.0 SW 18.3 0.0 0.0
15:51 15.8 10.8 72 1021.0 16.8 S 18.3 0.0 0.0
15:52 15.8 10.8 72 1020.9 16.8 SW 17.4 0.0 0.0
15:53 15.7 10.7 72 1021.1 18.3 SW 18.3 0.0 0.0
15:54 15.7 10.7 72 1020.9 16.8 SW 18.3 0.0 0.0
15:55 15.7 10.7 72 1020.8 17.4 SW 18.3 0.0 0.0
15:56 15.6 10.6 72 1020.7 17.4 SW 18.3 0.0 0.0
15:57 15.6 10.6 72 1020.9 19.0 SW 19.0 0.0 0.0
15:58 15.6 10.6 72 1020.9 14.5 W 19.0 0.0 0.0
15:59 15.6 10.8 73 1020.8 15.2 W 19.0 0.0 0.0
16:00 15.6 10.8 73 1021.0 15.2 W 19.0 0.0 0.0
16:01 15.6 10.8 73 1020.9 15.2 W 19.0 0.0 0.0
16:03 15.6 10.8 73 1020.8 15.2 W 19.0 0.0 0.0
16:04 15.6 10.8 73 1020.8 15.2 W 19.0 0.0 0.0
16:05 15.6 10.8 73 1020.8 19.0 SW 19.0 0.0 0.0
16:06 15.6 10.8 73 1020.8 15.2 SW 19.0 0.0 0.0
16:07 15.6 10.8 73 1021.0 16.8 W 19.0 0.0 0.0
16:08 15.6 10.6 72 1020.9 19.0 W 19.0 0.0 0.0
16:09 15.5 10.5 72 1020.9 19.0 SW 19.7 0.0 0.0
16:10 15.5 10.5 72 1021.0 19.0 SW 19.7 0.0 0.0
16:11 15.5 10.5 72 1020.9 13.6 SW 19.7 0.0 0.0
16:12 15.5 10.7 73 1021.0 13.6 WSW 19.7 0.0 0.0
16:13 15.5 10.7 73 1020.9 15.2 SW 19.7 0.0 0.0
16:14 15.6 10.8 73 1021.0 16.8 W 19.7 0.0 0.0
16:15 15.6 10.8 73 1020.8 20.6 SW 20.6 0.0 0.0
16:16 15.5 10.7 73 1020.8 20.6 W 20.6 0.0 0.0
16:17 15.5 10.7 73 1020.7 16.8 SW 20.6 0.0 0.0
16:19 15.4 10.6 73 1021.0 15.9 SW 20.6 0.0 0.0
16:20 15.4 10.6 73 1021.0 15.9 SW 20.6 0.0 0.0
16:21 15.4 10.6 73 1020.9 14.5 SW 20.6 0.0 0.0
16:22 15.4 10.6 73 1020.8 12.1 S 20.6 0.0 0.0
16:23 15.4 10.6 73 1020.8 13.6 S 20.6 0.0 0.0
16:24 15.4 10.8 74 1020.7 14.5 SW 20.6 0.0 0.0
16:25 15.4 10.8 74 1020.7 19.7 W 20.6 0.0 0.0
16:26 15.4 10.8 74 1020.7 15.9 SW 20.6 0.0 0.0
16:27 15.4 10.8 74 1020.8 14.5 S 19.7 0.0 0.0
16:28 15.4 10.8 74 1020.8 14.5 SW 19.7 0.0 0.0
16:29 15.4 10.8 74 1020.7 13.6 SW 19.7 0.0 0.0
16:30 15.4 10.8 74 1020.8 14.5 SW 19.7 0.0 0.0
16:31 15.4 10.8 74 1020.9 14.5 SW 19.7 0.0 0.0
16:32 15.5 10.9 74 1020.8 17.4 SW 19.7 0.0 0.0
16:34 15.5 10.9 74 1020.7 16.8 W 19.7 0.0 0.0
16:35 15.5 10.9 74 1020.7 16.8 W 19.7 0.0 0.0
16:36 15.5 10.9 74 1020.7 13.0 SW 19.0 0.0 0.0
16:37 15.6 11.0 74 1020.8 13.0 SW 19.0 0.0 0.0
16:38 15.6 11.0 74 1020.6 10.7 W 19.0 0.0 0.0
16:39 15.6 11.0 74 1020.9 15.9 SW 19.0 0.0 0.0
16:40 15.6 11.0 74 1020.6 17.4 SW 19.0 0.0 0.0
16:41 15.5 10.9 74 1020.8 19.7 SW 19.7 0.0 0.0
16:42 15.5 10.9 74 1020.9 19.7 SW 19.7 0.0 0.0
16:43 15.5 10.9 74 1020.8 15.9 S 19.7 0.0 0.0
16:44 15.5 10.7 73 1020.7 15.9 W 19.7 0.0 0.0
16:45 15.5 10.7 73 1020.7 13.0 W 19.7 0.0 0.0
16:46 15.4 10.8 74 1020.8 15.2 SW 19.7 0.0 0.0
16:47 15.4 10.8 74 1020.7 14.5 NW 19.7 0.0 0.0
16:48 15.4 10.8 74 1020.7 13.6 SW 19.7 0.0 0.0
16:49 15.4 10.8 74 1020.6 14.5 SW 19.7 0.0 0.0
16:51 15.4 10.8 74 1020.5 13.0 SW 19.7 0.0 0.0
16:52 15.4 10.8 74 1020.5 13.0 SW 19.7 0.0 0.0
16:53 15.4 10.8 74 1020.6 13.0 W 18.3 0.0 0.0
16:54 15.4 10.8 74 1020.7 13.0 W 15.9 0.0 0.0
16:55 15.3 10.7 74 1020.5 8.3 SW 15.2 0.0 0.0
16:56 15.3 10.7 74 1020.6 12.1 SW 15.2 0.0 0.0
16:57 15.3 10.7 74 1020.5 17.4 W 17.4 0.0 0.0
16:58 15.3 10.7 74 1020.7 14.5 W 17.4 0.0 0.0
16:59 15.3 10.7 74 1020.6 15.2 SW 17.4 0.0 0.0
17:00 15.3 10.7 74 1020.4 15.2 W 17.4 0.0 0.0
17:01 15.3 10.7 74 1020.5 15.2 W 17.4 0.0 0.0
17:02 15.2 10.6 74 1020.4 14.5 SW 17.4 0.0 0.0
17:03 15.2 10.6 74 1020.6 14.5 SW 17.4 0.0 0.0
17:04 15.2 10.6 74 1020.5 15.9 SW 17.4 0.0 0.0
17:05 15.2 10.6 74 1020.5 14.5 W 17.4 0.0 0.0
17:06 15.2 10.6 74 1020.6 14.5 W 17.4 0.0 0.0
17:07 15.1 10.5 74 1020.4 15.2 W 17.4 0.0 0.0
17:09 15.1 10.5 74 1020.7 15.9 W 15.9 0.0 0.0
17:10 15.1 10.5 74 1020.7 15.9 WSW 15.9 0.0 0.0
17:11 15.1 10.5 74 1020.5 12.1 SW 15.9 0.0 0.0
17:12 15.1 10.5 74 1020.4 13.0 SW 15.9 0.0 0.0
17:13 15.1 10.5 74 1020.4 18.3 W 18.3 0.0 0.0
17:14 15.1 10.5 74 1020.5 17.4 W 18.3 0.0 0.0
17:15 15.1 10.7 75 1020.2 17.4 SW 18.3 0.0 0.0
17:16 15.1 10.7 75 1020.5 13.0 SW 18.3 0.0 0.0
17:17 15.1 10.7 75 1020.5 14.5 SW 18.3 0.0 0.0
17:18 15.1 10.7 75 1020.5 13.6 W 18.3 0.0 0.0
17:19 15.1 10.7 75 1020.5 13.6 W 18.3 0.0 0.0
17:20 15.1 10.7 75 1020.4 13.6 SW 18.3 0.0 0.0
17:21 15.2 10.8 75 1020.2 16.8 SW 18.3 0.0 0.0
17:22 15.2 10.8 75 1020.3 10.7 SW 18.3 0.0 0.0
17:23 15.2 10.8 75 1020.3 13.6 W 18.3 0.0 0.0
17:24 15.2 10.8 75 1020.2 13.6 SW 17.4 0.0 0.0
17:25 15.2 10.8 75 1020.4 10.7 SW 17.4 0.0 0.0
17:26 15.2 10.8 75 1020.5 13.0 SW 16.8 0.0 0.0
17:27 15.2 10.8 75 1020.2 11.4 W 16.8 0.0 0.0
17:28 15.3 10.9 75 1020.0 15.2 W 16.8 0.0 0.0
17:29 15.3 10.9 75 1020.0 13.6 SW 16.8 0.0 0.0
17:30 15.3 10.9 75 1020.0 13.0 SW 16.8 0.0 0.0
17:31 15.3 10.9 75 1020.1 13.6 NW 16.8 0.0 0.0
17:32 15.3 10.9 75 1019.9 16.8 SW 16.8 0.0 0.0
17:33 15.3 10.9 75 1020.1 15.9 S 16.8 0.0 0.0
17:34 15.3 10.9 75 1020.0 9.8 W 16.8 0.0 0.0
17:36 15.3 10.9 75 1020.0 13.0 SW 16.8 0.0 0.0
17:37 15.3 10.9 75 1020.2 13.0 WNW 16.8 0.0 0.0
17:38 15.3 10.9 75 1020.1 13.6 W 16.8 0.0 0.0
17:39 15.3 10.9 75 1020.0 9.2 SW 16.8 0.0 0.0
17:40 15.3 10.9 75 1020.0 9.8 SW 16.8 0.0 0.0
17:41 15.3 10.9 75 1020.2 17.4 SW 17.4 0.0 0.0
17:42 15.3 10.9 75 1020.2 15.9 SW 17.4 0.0 0.0
17:43 15.3 10.9 75 1020.2 15.2 SW 17.4 0.0 0.0
17:44 15.2 10.8 75 1020.0 13.0 W 17.4 0.0 0.0
17:45 15.2 10.8 75 1020.1 14.5 SW 17.4 0.0 0.0
17:46 15.2 10.8 75 1020.0 13.0 S 17.4 0.0 0.0
17:47 15.1 10.7 75 1020.1 13.0 SW 17.4 0.0 0.0
17:48 15.1 10.7 75 1020.0 9.8 SW 17.4 0.0 0.0
17:49 15.1 10.7 75 1019.9 15.9 SW 17.4 0.0 0.0
17:50 15.1 10.7 75 1020.0 12.1 W 17.4 0.0 0.0
17:51 15.1 10.7 75 1020.0 11.4 W 17.4 0.0 0.0
17:53 15.1 10.7 75 1019.9 13.0 SW 15.9 0.0 0.0
17:54 15.1 10.7 75 1019.8 15.2 SW 15.9 0.0 0.0
17:55 15.1 10.7 75 1020.0 15.2 W 15.9 0.0 0.0
17:56 15.1 10.7 75 1019.9 15.2 W 15.9 0.0 0.0
17:57 15.2 11.0 76 1019.8 9.2 W 15.9 0.0 0.0
17:58 15.2 11.0 76 1020.0 9.2 W 15.9 0.0 0.0
17:59 15.2 11.0 76 1020.1 11.4 W 15.9 0.0 0.0
18:00 15.2 11.0 76 1020.1 13.6 W 15.2 0.0 0.0
18:01 15.2 11.0 76 1019.8 13.6 W 15.2 0.0 0.0
18:02 15.2 11.0 76 1019.9 13.6 W 15.2 0.0 0.0
18:03 15.2 11.0 76 1019.9 13.6 W 15.2 0.0 0.0
18:04 15.2 11.0 76 1019.9 13.6 W 15.2 0.0 0.0
18:05 15.2 11.0 76 1019.8 13.6 W 15.2 0.0 0.0
18:06 15.5 11.3 76 1019.8 13.6 W 13.6 0.0 0.0
18:08 15.5 11.3 76 1020.0 15.2 SW 15.2 0.0 0.0
18:09 15.6 11.4 76 1019.9 15.9 W 15.9 0.0 0.0
18:10 15.5 11.3 76 1019.7 15.9 W 15.9 0.0 0.0
18:11 15.5 11.3 76 1019.9 14.5 SW 15.9 0.0 0.0
18:12 15.5 11.3 76 1019.6 14.5 SW 15.9 0.0 0.0
18:13 15.5 11.1 75 1019.7 9.8 SW 15.9 0.0 0.0
18:14 15.5 11.1 75 1019.9 13.6 W 15.9 0.0 0.0
18:15 15.5 11.1 75 1019.7 14.5 SW 15.9 0.0 0.0
18:16 15.5 11.1 75 1019.7 13.0 W 15.9 0.0 0.0
18:17 15.5 11.1 75 1020.0 15.2 W 15.9 0.0 0.0
18:18 15.4 11.0 75 1019.8 15.2 W 15.9 0.0 0.0
18:19 15.4 11.0 75 1019.8 15.2 SW 15.9 0.0 0.0
18:20 15.4 11.0 75 1019.9 18.3 W 18.3 0.0 0.0
18:21 15.4 11.0 75 1019.7 12.1 SW 18.3 0.0 0.0
18:23 15.3 10.9 75 1019.8 11.4 NW 18.3 0.0 0.0
18:24 15.3 10.9 75 1019.7 12.1 N 18.3 0.0 0.0
18:25 15.3 10.9 75 1019.6 12.1 W 18.3 0.0 0.0
18:26 15.3 10.9 75 1019.9 11.4 W 18.3 0.0 0.0
18:27 15.3 10.9 75 1019.5 11.4 W 18.3 0.0 0.0
18:28 15.3 10.9 75 1019.5 11.4 SW 18.3 0.0 0.0
18:29 15.3 11.1 76 1019.5 11.4 SW 18.3 0.0 0.0
18:30 15.3 11.1 76 1019.6 10.7 SW 18.3 0.0 0.0
18:31 15.3 11.1 76 1019.6 9.8 SW 12.1 0.0 0.0
18:32 15.3 11.1 76 1019.6 9.8 SW 12.1 0.0 0.0
18:33 15.3 11.1 76 1019.8 9.8 SW 12.1 0.0 0.0
18:34 15.3 11.1 76 1019.7 9.8 SW 12.1 0.0 0.0
18:35 15.3 11.1 76 1019.6 9.8 SW 12.1 0.0 0.0
18:37 15.3 11.3 77 1019.6 13.0 SW 13.0 0.0 0.0
18:38 15.3 11.1 76 1019.5 14.5 W 14.5 0.0 0.0
18:39 15.3 11.1 76 1019.7 14.5 W 14.5 0.0 0.0
18:40 15.3 11.1 76 1019.6 14.5 W 14.5 0.0 0.0
18:41 15.3 11.1 76 1019.4 11.4 SW 14.5 0.0 0.0
18:42 15.3 11.1 76 1019.4 11.4 SW 14.5 0.0 0.0
18:43 15.3 11.1 76 1019.6 11.4 SW 14.5 0.0 0.0
18:44 15.3 11.1 76 1019.5 11.4 SW 14.5 0.0 0.0
18:45 15.2 11.0 76 1019.4 15.2 SW 15.2 0.0 0.0
18:46 15.2 11.0 76 1019.4 13.6 SW 15.2 0.0 0.0
18:47 15.2 11.0 76 1019.6 9.8 SW 15.2 0.0 0.0
18:48 15.2 11.0 76 1019.6 9.8 SW 15.2 0.0 0.0
18:49 15.2 11.0 76 1019.3 9.8 SW 15.2 0.0 0.0
18:51 15.3 11.1 76 1019.5 13.0 SW 15.2 0.0 0.0
18:52 15.3 11.1 76 1019.5 13.0 SW 15.2 0.0 0.0
18:53 15.3 11.1 76 1019.7 16.8 W 16.8 0.0 0.0
18:54 15.3 11.1 76 1019.5 16.8 W 16.8 0.0 0.0
18:55 15.3 11.1 76 1019.5 13.6 W 16.8 0.0 0.0
18:56 15.3 11.1 76 1019.4 13.6 W 16.8 0.0 0.0
18:57 15.3 11.1 76 1019.3 15.9 SW 16.8 0.0 0.0
18:58 15.3 11.1 76 1019.6 15.9 SW 16.8 0.0 0.0
18:59 15.3 11.1 76 1019.6 9.8 W 16.8 0.0 0.0
19:00 15.3 11.1 76 1019.6 9.8 W 16.8 0.0 0.0
19:01 15.3 11.1 76 1019.4 9.8 W 16.8 0.0 0.0
19:02 15.3 11.1 76 1019.3 9.8 W 16.8 0.0 0.0
19:03 15.3 11.1 76 1019.3 12.1 SW 16.8 0.0 0.0
19:05 15.2 11.0 76 1019.5 10.7 W 15.9 0.0 0.0
19:06 15.2 11.0 76 1019.4 10.7 W 15.9 0.0 0.0
19:07 15.2 11.0 76 1019.4 10.7 W 15.9 0.0 0.0
19:08 15.2 11.0 76 1019.4 13.0 W 15.9 0.0 0.0
19:09 15.2 11.0 76 1019.4 10.7 W 13.0 0.0 0.0
19:10 15.2 11.0 76 1019.6 10.7 W 13.0 0.0 0.0
19:11 15.2 11.0 76 1019.3 15.2 W 15.2 0.0 0.0
19:12 15.2 11.0 76 1019.4 15.2 W 15.2 0.0 0.0
19:13 15.1 10.9 76 1019.4 15.9 SW 15.9 0.0 0.0
19:14 15.1 10.9 76 1019.3 15.9 WSW 15.9 0.0 0.0
19:15 15.1 10.9 76 1019.3 17.4 SW 17.4 0.0 0.0
19:17 15.1 10.9 76 1019.2 17.4 W 17.4 0.0 0.0
19:18 15.0 10.8 76 1019.2 15.9 NW 17.4 0.0 0.0
19:19 15.0 10.8 76 1019.3 15.9 W 17.4 0.0 0.0
19:20 15.0 11.0 77 1019.2 16.8 SW 17.4 0.0 0.0
19:21 15.0 11.0 77 1019.1 12.1 SW 17.4 0.0 0.0
19:22 15.0 11.0 77 1019.1 12.1 SW 17.4 0.0 0.0
19:23 15.0 11.0 77 1019.2 13.0 S 17.4 0.0 0.0
19:24 15.0 11.0 77 1019.1 13.0 SW 17.4 0.0 0.0
19:25 15.0 11.0 77 1019.1 12.1 WSW 17.4 0.0 0.0
19:26 14.9 10.9 77 1019.1 11.4 SW 17.4 0.0 0.0
19:27 14.9 10.9 77 1019.2 12.1 W 16.8 0.0 0.0
19:28 14.9 10.9 77 1019.0 13.0 WSW 16.8 0.0 0.0
19:29 14.9 10.9 77 1019.1 13.0 WSW 16.8 0.0 0.0
19:31 14.9 11.1 78 1019.2 9.8 SW 13.0 0.0 0.0
19:32 14.9 11.1 78 1019.1 9.8 SW 13.0 0.0 0.0
19:33 14.9 11.1 78 1019.1 15.2 W 15.2 0.0 0.0
19:34 14.9 11.1 78 1019.0 15.2 W 15.2 0.0 0.0
19:35 14.9 11.1 78 1019.0 13.0 W 15.2 0.0 0.0
19:36 14.9 11.1 78 1019.2 13.0 SW 15.2 0.0 0.0
19:37 14.8 11.0 78 1019.1 11.4 NW 15.2 0.0 0.0
19:38 14.8 11.0 78 1019.1 15.2 SW 15.2 0.0 0.0
19:39 14.8 11.0 78 1019.0 15.2 SW 15.2 0.0 0.0
19:40 14.8 11.0 78 1019.1 17.4 SW 17.4 0.0 0.0
19:41 14.8 11.0 78 1019.0 17.4 SW 17.4 0.0 0.0
19:42 14.8 11.0 78 1018.9 14.5 NW 17.4 0.0 0.0
19:43 14.7 10.9 78 1019.0 13.6 WNW 17.4 0.0 0.0
19:44 14.7 10.9 78 1019.0 13.0 W 17.4 0.0 0.0
19:46 14.7 10.9 78 1018.9 13.0 W 17.4 0.0 0.0
19:47 14.7 10.9 78 1019.1 17.4 W 17.4 0.0 0.0
19:48 14.7 10.9 78 1018.9 17.4 W 17.4 0.0 0.0
19:49 14.7 10.9 78 1018.8 15.2 SW 17.4 0.0 0.0
19:50 14.6 10.8 78 1019.1 13.6 NW 17.4 0.0 0.0
19:51 14.6 10.8 78 1018.9 13.6 NW 17.4 0.0 0.0
19:52 14.6 10.8 78 1018.9 13.6 SW 17.4 0.0 0.0
19:53 14.6 10.8 78 1018.7 12.1 WSW 17.4 0.0 0.0
19:54 14.6 11.0 79 1019.0 13.0 W 17.4 0.0 0.0
19:55 14.6 11.0 79 1019.0 13.0 W 17.4 0.0 0.0
19:56 14.6 11.0 79 1018.9 15.2 SW 17.4 0.0 0.0
19:57 14.6 11.0 79 1019.1 13.6 S 17.4 0.0 0.0
19:58 14.6 11.0 79 1019.1 15.2 W 15.2 0.0 0.0
20:00 14.6 11.0 79 1018.9 13.0 SW 15.2 0.0 0.0
20:01 14.6 11.0 79 1018.9 13.0 SW 15.2 0.0 0.0
20:02 14.6 11.0 79 1019.1 12.1 S 15.2 0.0 0.0
20:03 14.6 11.0 79 1018.8 12.1 S 15.2 0.0 0.0
20:04 14.6 11.0 79 1019.0 9.2 W 15.2 0.0 0.0
20:05 14.6 11.0 79 1018.8 13.0 W 15.2 0.0 0.0
20:06 14.5 10.9 79 1018.7 14.5 W 15.2 0.0 0.0
20:07 14.5 10.9 79 1018.7 13.0 W 15.2 0.0 0.0
20:08 14.5 10.9 79 1018.7 15.2 W 15.2 0.0 0.0
20:09 14.5 11.1 80 1018.8 13.0 W 15.2 0.0 0.0
20:10 14.5 11.1 80 1018.8 8.3 S 15.2 0.0 0.0
20:11 14.5 11.1 80 1018.7 9.8 W 15.2 0.0 0.0
20:12 14.5 11.1 80 1019.0 13.6 W 15.2 0.0 0.0
20:14 14.5 11.1 80 1018.8 11.4 W 15.2 0.0 0.0
20:15 14.5 11.1 80 1019.0 11.4 W 15.2 0.0 0.0
20:16 14.5 11.1 80 1018.9 13.0 W 15.2 0.0 0.0
20:17 14.5 11.1 80 1018.8 12.1 W 15.2 0.0 0.0
20:18 14.5 11.1 80 1018.9 12.1 W 15.2 0.0 0.0
20:19 14.5 11.1 80 1018.8 10.7 W 13.6 0.0 0.0
20:20 14.5 11.1 80 1018.9 10.7 W 13.6 0.0 0.0
20:21 14.5 11.1 80 1018.6 15.9 W 15.9 0.0 0.0
20:22 14.5 11.1 80 1018.7 16.8 SW 17.4 0.0 0.0
20:23 14.5 11.1 80 1018.9 14.5 W 17.4 0.0 0.0
20:24 14.5 11.1 80 1018.7 14.5 W 17.4 0.0 0.0
20:25 14.5 11.1 80 1018.7 15.9 NW 17.4 0.0 0.0
20:26 14.5 11.1 80 1018.7 15.9 SW 17.4 0.0 0.0
20:28 14.5 11.1 80 1018.7 14.5 W 17.4 0.0 0.0
20:29 14.5 11.1 80 1018.5 10.7 W 17.4 0.0 0.0
20:30 14.5 11.1 80 1018.7 10.7 W 17.4 0.0 0.0
20:31 14.5 11.1 80 1018.4 13.0 W 17.4 0.0 0.0
20:32 14.5 11.1 80 1018.8 13.0 W 17.4 0.0 0.0
20:33 14.5 11.1 80 1018.7 11.4 W 16.8 0.0 0.0
20:34 14.5 11.1 80 1018.6 10.7 SW 15.9 0.0 0.0
20:35 14.5 11.1 80 1018.7 14.5 SW 15.9 0.0 0.0
20:36 14.5 11.1 80 1018.7 15.2 W 15.9 0.0 0.0
20:37 14.5 11.1 80 1018.7 13.6 W 15.2 0.0 0.0
20:38 14.5 11.1 80 1018.6 17.4 W 17.4 0.0 0.0
20:39 14.5 11.1 80 1018.6 10.7 W 17.4 0.0 0.0
20:40 14.5 11.3 81 1018.7 13.0 SW 17.4 0.0 0.0
20:42 14.5 11.3 81 1018.5 11.4 W 17.4 0.0 0.0
20:43 14.5 11.3 81 1018.7 9.8 NW 17.4 0.0 0.0
20:44 14.5 11.3 81 1018.7 11.4 W 17.4 0.0 0.0
20:45 14.5 11.3 81 1018.6 10.7 WNW 17.4 0.0 0.0
20:46 14.5 11.3 81 1018.8 14.5 NW 17.4 0.0 0.0
20:47 14.5 11.3 81 1018.7 14.5 W 17.4 0.0 0.0
20:48 14.5 11.3 81 1018.3 11.4 NW 17.4 0.0 0.0
20:49 14.5 11.3 81 1018.6 13.0 WNW 17.4 0.0 0.0
20:50 14.5 11.3 81 1018.6 15.2 W 15.9 0.0 0.0
20:51 14.5 11.3 81 1018.5 18.3 SW 18.3 0.0 0.0
20:52 14.5 11.3 81 1018.4 11.4 SW 18.3 0.0 0.0
20:53 14.5 11.3 81 1018.6 17.4 SW 18.3 0.0 0.0
20:54 14.5 11.3 81 1018.5 12.1 SW 18.3 0.0 0.0
20:56 14.5 11.3 81 1018.6 13.0 SW 18.3 0.0 0.0
20:57 14.5 11.3 81 1018.4 14.5 NW 18.3 0.0 0.0
20:58 14.5 11.3 81 1018.4 13.6 W 18.3 0.0 0.0
20:59 14.5 11.3 81 1018.4 13.0 W 18.3 0.0 0.0
21:00 14.5 11.3 81 1018.5 13.0 W 18.3 0.0 0.0
21:01 14.5 11.3 81 1018.3 13.0 W 18.3 0.0 0.0
21:02 14.5 11.3 81 1018.5 13.0 W 17.4 0.0 0.0
21:03 14.5 11.3 81 1018.3 13.0 W 17.4 0.0 0.0
21:04 14.5 11.3 81 1018.2 13.0 W 14.5 0.0 0.0
21:05 14.5 11.3 81 1018.5 14.5 S 14.5 0.0 0.0
21:06 14.5 11.3 81 1018.2 11.4 W 14.5 0.0 0.0
21:07 14.4 11.2 81 1018.5 12.1 W 14.5 0.0 0.0
21:08 14.4 11.2 81 1018.4 13.0 W 14.5 0.0 0.0
21:10 14.4 11.2 81 1018.4 13.0 W 16.8 0.0 0.0
21:11 14.4 11.2 81 1018.6 10.7 SW 16.8 0.0 0.0
21:12 14.4 11.2 81 1018.6 12.1 W 16.8 0.0 0.0
21:13 14.4 11.2 81 1018.5 13.6 WSW 16.8 0.0 0.0
21:14 14.4 11.4 82 1018.5 15.9 SW 16.8 0.0 0.0
21:15 14.4 11.4 82 1018.6 11.4 W 16.8 0.0 0.0
21:16 14.4 11.4 82 1018.5 9.2 W 16.8 0.0 0.0
21:17 14.4 11.4 82 1018.3 14.5 WSW 16.8 0.0 0.0
21:18 14.4 11.4 82 1018.4 15.2 SW 16.8 0.0 0.0
21:19 14.4 11.4 82 1018.3 14.5 SW 16.8 0.0 0.0
21:20 14.4 11.4 82 1018.6 10.7 NW 15.9 0.0 0.0
21:22 14.4 11.4 82 1018.4 11.4 WSW 15.9 0.0 0.0
21:23 14.4 11.4 82 1018.4 11.4 WSW 15.9 0.0 0.0
21:24 14.4 11.4 82 1018.5 12.1 W 15.9 0.0 0.0
21:25 14.4 11.4 82 1018.3 11.4 SW 15.2 0.0 0.0
21:26 14.3 11.3 82 1018.5 15.2 SW 15.2 0.0 0.0
21:27 14.3 11.3 82 1018.5 13.6 W 15.2 0.0 0.0
21:28 14.3 11.3 82 1018.4 15.2 SW 15.2 0.0 0.0
21:29 14.3 11.3 82 1018.4 13.6 W 15.2 0.0 0.0
21:30 14.3 11.3 82 1018.4 14.5 SW 15.2 0.0 0.0
21:31 14.3 11.3 82 1018.3 13.0 W 15.2 0.0 0.0
21:32 14.3 11.3 82 1018.4 11.4 NW 15.2 0.0 0.0
21:33 14.3 11.3 82 1018.5 11.4 NW 15.2 0.0 0.0
21:34 14.3 11.3 82 1018.2 12.1 W 15.2 0.0 0.0
21:36 14.3 11.3 82 1018.3 18.3 W 18.3 0.0 0.0
21:37 14.3 11.5 83 1018.4 16.8 SW 18.3 0.0 0.0
21:38 14.3 11.5 83 1018.5 16.8 W 18.3 0.0 0.0
21:39 14.3 11.5 83 1018.3 15.2 W 18.3 0.0 0.0
21:40 14.3 11.5 83 1018.3 16.8 W 18.3 0.0 0.0
21:41 14.3 11.5 83 1018.4 22.1 SW 22.1 0.0 0.0
21:42 14.3 11.5 83 1018.5 14.5 W 22.1 0.0 0.0
21:43 14.3 11.5 83 1018.6 11.4 WNW 22.1 0.0 0.0
21:44 14.3 11.5 83 1018.6 10.7 WSW 22.1 0.0 0.0
21:45 14.3 11.5 83 1018.5 13.6 SW 22.1 0.0 0.0
21:46 14.3 11.5 83 1018.5 13.6 W 22.1 0.0 0.0
21:47 14.3 11.5 83 1018.5 11.4 W 22.1 0.0 0.0
21:48 14.3 11.5 83 1018.6 10.7 W 22.1 0.0 0.0
21:49 14.3 11.5 83 1018.6 10.7 W 22.1 0.0 0.0
21:51 14.3 11.5 83 1018.4 12.1 SW 22.1 0.0 0.0
21:52 14.3 11.5 83 1018.6 9.8 SW 14.5 0.0 0.0
21:53 14.2 11.4 83 1018.5 10.7 SW 13.6 0.0 0.0
21:54 14.2 11.4 83 1018.6 10.7 W 13.6 0.0 0.0
21:55 14.2 11.5 84 1018.6 11.4 NW 13.6 0.0 0.0
21:56 14.2 11.5 84 1018.4 9.8 S 13.6 0.0 0.0
21:57 14.2 11.5 84 1018.4 12.1 SW 12.1 0.0 0.0
21:58 14.2 11.5 84 1018.4 12.1 SW 12.1 0.0 0.0
21:59 14.2 11.5 84 1018.5 13.0 SW 13.0 0.0 0.0
22:00 14.2 11.5 84 1018.6 13.0 SW 13.0 0.0 0.0
22:01 14.2 11.5 84 1018.5 13.0 SW 13.0 0.0 0.0
22:02 14.2 11.5 84 1018.6 13.0 SW 13.0 0.0 0.0
22:04 14.2 11.5 84 1018.3 13.0 SW 13.0 0.0 0.0
22:05 14.2 11.5 84 1018.5 13.0 SW 13.0 0.0 0.0
22:06 14.2 11.5 84 1018.6 10.7 S 13.0 0.0 0.0
22:07 14.2 11.5 84 1018.5 13.6 W 13.6 0.0 0.0
22:08 14.2 11.5 84 1018.5 9.8 SW 13.6 0.0 0.0
22:09 14.2 11.5 84 1018.6 9.2 WSW 13.6 0.0 0.0
22:10 14.2 11.5 84 1018.5 10.7 W 13.6 0.0 0.0
22:11 14.2 11.5 84 1018.5 8.3 SW 13.6 0.0 0.0
22:12 14.2 11.5 84 1018.4 9.8 W 13.6 0.0 0.0
22:13 14.2 11.5 84 1018.6 9.8 W 13.6 0.0 0.0
22:14 14.2 11.5 84 1018.5 9.8 W 13.6 0.0 0.0
22:15 14.2 11.7 85 1018.5 12.1 W 13.6 0.0 0.0
22:16 14.2 11.7 85 1018.4 11.4 S 13.6 0.0 0.0
22:17 14.2 11.7 85 1018.4 8.3 W 12.1 0.0 0.0
22:19 14.2 11.7 85 1018.6 12.1 SW 12.1 0.0 0.0
22:20 14.2 11.7 85 1018.6 12.1 SW 12.1 0.0 0.0
22:21 14.2 11.7 85 1018.6 9.2 W 12.1 0.0 0.0
22:22 14.2 11.7 85 1018.5 15.9 W 15.9 0.0 0.0
22:23 14.2 11.7 85 1018.7 10.7 W 15.9 0.0 0.0
22:24 14.2 11.7 85 1018.7 10.7 W 15.9 0.0 0.0
22:25 14.2 11.7 85 1018.8 13.0 W 15.9 0.0 0.0
22:26 14.2 11.7 85 1018.6 11.4 SW 15.9 0.0 0.0
22:27 14.2 11.7 85 1018.6 13.0 SW 15.9 0.0 0.0
22:28 14.2 11.7 85 1018.6 13.6 W 15.9 0.0 0.0
22:29 14.2 11.7 85 1018.6 13.6 W 15.9 0.0 0.0
22:30 14.2 11.7 85 1018.6 10.7 SW 15.9 0.0 0.0
22:31 14.2 11.7 85 1018.5 9.8 SW 15.9 0.0 0.0
22:33 14.2 11.9 86 1018.6 12.1 SW 13.6 0.0 0.0
22:34 14.2 11.9 86 1018.4 9.8 SW 13.6 0.0 0.0
22:35 14.2 11.9 86 1018.6 11.4 SW 13.6 0.0 0.0
22:36 14.2 11.9 86 1018.5 14.5 W 14.5 0.0 0.0
22:37 14.2 11.9 86 1018.5 9.2 SW 14.5 0.0 0.0
22:38 14.2 11.9 86 1018.5 7.6 W 14.5 0.0 0.0
22:39 14.2 11.9 86 1018.4 8.3 SW 14.5 0.0 0.0
22:40 14.2 11.9 86 1018.4 8.3 WNW 14.5 0.0 0.0
22:41 14.2 11.9 86 1018.7 11.4 SW 14.5 0.0 0.0
22:42 14.2 11.9 86 1018.4 9.2 SW 14.5 0.0 0.0
22:43 14.2 11.9 86 1018.4 11.4 SW 14.5 0.0 0.0
22:44 14.2 11.9 86 1018.5 11.4 SW 14.5 0.0 0.0
22:45 14.2 11.9 86 1018.5 8.3 W 14.5 0.0 0.0
22:47 14.2 11.9 86 1018.5 6.9 W 11.4 0.0 0.0
22:48 14.2 11.9 86 1018.5 6.9 W 11.4 0.0 0.0
22:49 14.2 11.9 86 1018.4 6.0 SW 11.4 0.0 0.0
22:50 14.2 11.9 86 1018.4 6.9 SW 11.4 0.0 0.0
22:51 14.2 11.9 86 1018.4 11.4 SW 11.4 0.0 0.0
22:52 14.2 11.9 86 1018.5 11.4 S 11.4 0.0 0.0
22:53 14.2 11.9 86 1018.6 10.7 W 11.4 0.0 0.0
22:54 14.2 11.9 86 1018.3 7.6 SW 11.4 0.0 0.0
22:55 14.2 11.9 86 1018.5 14.5 W 14.5 0.0 0.0
22:56 14.2 12.1 87 1018.4 9.8 SW 14.5 0.0 0.0
22:57 14.2 12.1 87 1018.2 12.1 SW 14.5 0.0 0.0
22:58 14.2 12.1 87 1018.5 11.4 SW 14.5 0.0 0.0
22:59 14.2 12.1 87 1018.5 7.6 W 14.5 0.0 0.0
23:00 14.2 12.1 87 1018.5 7.6 W 14.5 0.0 0.0
23:02 14.2 12.1 87 1018.6 7.6 W 14.5 0.0 0.0
23:03 14.2 12.1 87 1018.4 7.6 W 14.5 0.0 0.0
23:04 14.2 12.1 87 1018.5 7.6 W 14.5 0.0 0.0
23:05 14.2 12.1 87 1018.2 7.6 W 14.5 0.0 0.0
23:06 14.2 12.1 87 1018.4 10.7 SW 14.5 0.0 0.0
23:07 14.2 12.1 87 1018.6 7.6 SW 12.1 0.0 0.0
23:08 14.2 12.1 87 1018.4 9.8 W 11.4 0.0 0.0
23:09 14.2 12.1 87 1018.3 10.7 W 11.4 0.0 0.0
23:10 14.2 12.1 87 1018.7 10.7 SW 10.7 0.0 0.0
23:11 14.2 12.1 87 1018.4 11.4 SW 12.1 0.0 0.0
23:12 14.2 12.1 87 1018.5 6.0 W 12.1 0.0 0.0
23:13 14.2 12.1 87 1018.5 13.0 W 13.0 0.0 0.0
23:14 14.2 12.1 87 1018.4 13.0 W 13.0 0.0 0.0
23:15 14.2 12.1 87 1018.3 10.7 SW 13.0 0.0 0.0
23:16 14.2 12.1 87 1018.4 10.7 SW 13.0 0.0 0.0
23:17 14.2 12.1 87 1018.2 8.3 W 13.0 0.0 0.0
23:19 14.2 12.1 87 1018.3 11.4 W 13.0 0.0 0.0
23:20 14.2 12.1 87 1018.3 11.4 SW 13.0 0.0 0.0
23:21 14.2 12.1 87 1018.5 9.8 W 13.0 0.0 0.0
23:22 14.2 12.1 87 1018.5 8.3 S 13.0 0.0 0.0
23:23 14.2 12.1 87 1018.3 9.2 S 13.0 0.0 0.0
23:24 14.2 12.1 87 1018.4 10.7 W 11.4 0.0 0.0
23:25 14.2 12.1 87 1018.3 11.4 SW 11.4 0.0 0.0
23:26 14.2 12.2 88 1018.2 11.4 W 11.4 0.0 0.0
23:27 14.2 12.2 88 1018.2 9.2 W 11.4 0.0 0.0
23:29 14.2 12.2 88 1018.4 9.8 WNW 11.4 0.0 0.0
23:30 14.2 12.2 88 1018.4 8.3 W 11.4 0.0 0.0
23:31 14.2 12.2 88 1018.5 11.4 SW 11.4 0.0 0.0
23:32 14.2 12.2 88 1018.2 12.1 SW 12.1 0.0 0.0
23:33 14.2 12.2 88 1018.4 12.1 S 12.1 0.0 0.0
23:34 14.2 12.2 88 1018.3 9.8 W 12.1 0.0 0.0
23:35 14.2 12.2 88 1018.3 12.1 SW 12.1 0.0 0.0
23:36 14.2 12.2 88 1018.2 10.7 WSW 12.1 0.0 0.0
23:37 14.2 12.2 88 1018.4 9.2 WSW 12.1 0.0 0.0
23:38 14.2 12.2 88 1018.6 12.1 SW 12.1 0.0 0.0
23:39 14.2 12.2 88 1018.3 13.0 W 13.0 0.0 0.0
23:40 14.2 12.2 88 1018.6 12.1 S 13.0 0.0 0.0
23:41 14.2 12.2 88 1018.3 8.3 SW 13.0 0.0 0.0
23:42 14.2 12.2 88 1018.4 9.2 W 13.0 0.0 0.0
23:44 14.2 12.2 88 1018.3 10.7 SW 13.0 0.0 0.0
23:45 14.2 12.2 88 1018.4 10.7 W 13.0 0.0 0.0
23:46 14.2 12.2 88 1018.5 10.7 W 13.0 0.0 0.0
23:47 14.2 12.2 88 1018.3 6.9 W 13.0 0.0 0.0
23:48 14.2 12.2 88 1018.2 6.9 W 13.0 0.0 0.0
23:49 14.2 12.2 88 1018.4 8.3 SW 13.0 0.0 0.0
23:50 14.2 12.2 88 1018.4 9.8 SW 12.1 0.0 0.0
23:51 14.2 12.2 88 1018.2 9.8 W 10.7 0.0 0.0
23:52 14.2 12.2 88 1018.2 6.9 W 10.7 0.0 0.0
23:53 14.2 12.2 88 1018.3 9.2 W 10.7 0.0 0.0
23:54 14.2 12.2 88 1018.2 11.4 SW 11.4 0.0 0.0
23:55 14.2 12.4 89 1018.1 11.4 W 11.4 0.0 0.0
23:56 14.2 12.4 89 1018.3 11.4 W 11.4 0.0 0.0
23:58 14.2 12.4 89 1018.1 9.8 SW 11.4 0.0 0.0
23:59 14.2 12.4 89 1018.3 8.3 SW 11.4 0.0 0.0

 

 

UK - WEATHER STATION TOPSITES - UK World Weather Websites

Copyright © Carnkie Weather 2009 - 2020.